Observation data for Bootleg on 12/09/2018      Previous  Date       Current Mesonet Observations  Soil Data  Daily Summary Page  Observations in Plain Language
KBO1 090600Z 22006KT M06/M07 A3028 RMK A01 T10581066  RH  094%=      5-min Rain = 0
KBO1 090601Z 22005KT M06/M07 A3028 RMK A01 T10581066  RH  094%=      5-min Rain = 0
KBO1 090602Z 22005KT M06/M07 A3028 RMK A01 T10581066  RH  094%=      5-min Rain = 0
KBO1 090603Z 22005KT M06/M07 A3028 RMK A01 T10581066  RH  094%=      5-min Rain = 0
KBO1 090604Z 22005KT M06/M07 A3028 RMK A01 T10581066  RH  094%=      5-min Rain = 0
KBO1 090605Z 22006KT M06/M07 A3028 RMK A01 T10581067  RH  094%=      5-min Rain = 0
KBO1 090606Z 22006KT M06/M07 A3028 RMK A01 T10581066  RH  094%=      5-min Rain = 0
KBO1 090607Z 22006KT M06/M07 A3028 RMK A01 T10581066  RH  094%=      5-min Rain = 0
KBO1 090608Z 22005KT M06/M07 A3028 RMK A01 T10581066  RH  094%=      5-min Rain = 0
KBO1 090609Z 22005KT M06/M07 A3028 RMK A01 T10581066  RH  094%=      5-min Rain = 0
KBO1 090610Z 22005KT M06/M07 A3028 RMK A01 T10581066  RH  094%=      5-min Rain = 0
KBO1 090611Z 23005KT M06/M07 A3028 RMK A01 T10581066  RH  094%=      5-min Rain = 0
KBO1 090612Z 23005KT M06/M07 A3028 RMK A01 T10581067  RH  094%=      5-min Rain = 0
KBO1 090613Z 23005KT M06/M07 A3029 RMK A01 T10581067  RH  094%=      5-min Rain = 0
KBO1 090614Z 23005KT M06/M07 A3028 RMK A01 T10581066  RH  094%=      5-min Rain = 0
KBO1 090615Z 22005KT M06/M07 A3028 RMK A01 T10571065  RH  094%=      5-min Rain = 0
KBO1 090616Z 22005KT M06/M07 A3028 RMK A01 T10571065  RH  094%=      5-min Rain = 0
KBO1 090617Z 22005KT M06/M07 A3029 RMK A01 T10561065  RH  094%=      5-min Rain = 0
KBO1 090618Z 22005KT M06/M07 A3029 RMK A01 T10561065  RH  094%=      5-min Rain = 0
KBO1 090619Z 23005KT M06/M07 A3029 RMK A01 T10571066  RH  094%=      5-min Rain = 0
KBO1 090620Z 23006KT M06/M07 A3029 RMK A01 T10571066  RH  094%=      5-min Rain = 0
KBO1 090621Z 23006KT M06/M07 A3029 RMK A01 T10571065  RH  094%=      5-min Rain = 0
KBO1 090622Z 23006KT M06/M07 A3029 RMK A01 T10571065  RH  094%=      5-min Rain = 0
KBO1 090623Z 23006KT M06/M07 A3029 RMK A01 T10571065  RH  094%=      5-min Rain = 0
KBO1 090624Z 23006KT M06/M07 A3029 RMK A01 T10571065  RH  094%=      5-min Rain = 0
KBO1 090625Z 23006KT M06/M07 A3029 RMK A01 T10571066  RH  094%=      5-min Rain = 0
KBO1 090626Z 23006KT M06/M07 A3029 RMK A01 T10571066  RH  094%=      5-min Rain = 0
KBO1 090627Z 23006KT M06/M07 A3029 RMK A01 T10581066  RH  094%=      5-min Rain = 0
KBO1 090628Z 23006KT M06/M07 A3028 RMK A01 T10581066  RH  094%=      5-min Rain = 0
KBO1 090629Z 23006KT M06/M07 A3028 RMK A01 T10581066  RH  094%=      5-min Rain = 0
KBO1 090630Z 23006KT M06/M07 A3028 RMK A01 T10581066  RH  094%=      5-min Rain = 0
KBO1 090631Z 23006KT M06/M07 A3028 RMK A01 T10581066  RH  094%=      5-min Rain = 0
KBO1 090632Z 23006KT M06/M07 A3028 RMK A01 T10581066  RH  094%=      5-min Rain = 0
KBO1 090633Z 23006KT M06/M07 A3028 RMK A01 T10581067  RH  094%=      5-min Rain = 0
KBO1 090634Z 23006KT M06/M07 A3028 RMK A01 T10591068  RH  094%=      5-min Rain = 0
KBO1 090635Z 23005KT M06/M07 A3028 RMK A01 T10601069  RH  093%=      5-min Rain = 0
KBO1 090636Z 23005KT M06/M07 A3028 RMK A01 T10601069  RH  093%=      5-min Rain = 0
KBO1 090637Z 23005KT M06/M07 A3028 RMK A01 T10601069  RH  093%=      5-min Rain = 0
KBO1 090638Z 23005KT M06/M07 A3028 RMK A01 T10601068  RH  094%=      5-min Rain = 0
KBO1 090639Z 23006KT M06/M07 A3028 RMK A01 T10591068  RH  094%=      5-min Rain = 0
KBO1 090640Z 23006KT M06/M07 A3028 RMK A01 T10591068  RH  094%=      5-min Rain = 0
KBO1 090641Z 23006KT M06/M07 A3028 RMK A01 T10591068  RH  094%=      5-min Rain = 0
KBO1 090642Z 23006KT M06/M07 A3028 RMK A01 T10591068  RH  094%=      5-min Rain = 0
KBO1 090643Z 23006KT M06/M07 A3028 RMK A01 T10591067  RH  094%=      5-min Rain = 0
KBO1 090644Z 23006KT M06/M07 A3028 RMK A01 T10591067  RH  094%=      5-min Rain = 0
KBO1 090645Z 23006KT M06/M07 A3028 RMK A01 T10591068  RH  094%=      5-min Rain = 0
KBO1 090646Z 23006KT M06/M07 A3028 RMK A01 T10591067  RH  094%=      5-min Rain = 0
KBO1 090647Z 23007KT M06/M07 A3028 RMK A01 T10581066  RH  094%=      5-min Rain = 0
KBO1 090648Z 23007KT M06/M07 A3028 RMK A01 T10591067  RH  094%=      5-min Rain = 0
KBO1 090649Z 23007KT M06/M07 A3028 RMK A01 T10591067  RH  094%=      5-min Rain = 0
KBO1 090650Z 23007KT M06/M07 A3028 RMK A01 T10591067  RH  094%=      5-min Rain = 0
KBO1 090651Z 23007KT M06/M07 A3028 RMK A01 T10591067  RH  094%=      5-min Rain = 0
KBO1 090652Z 23007KT M06/M07 A3028 RMK A01 T10581066  RH  094%=      5-min Rain = 0
KBO1 090653Z 23008KT M06/M07 A3028 RMK A01 T10591067  RH  094%=      5-min Rain = 0
KBO1 090654Z 23008KT M06/M07 A3028 RMK A01 T10591067  RH  094%=      5-min Rain = 0
KBO1 090655Z 23007KT M06/M07 A3028 RMK A01 T10591067  RH  094%=      5-min Rain = 0
KBO1 090656Z 23007KT M06/M07 A3028 RMK A01 T10591067  RH  094%=      5-min Rain = 0
KBO1 090657Z 23008KT M06/M07 A3028 RMK A01 T10591067  RH  094%=      5-min Rain = 0
KBO1 090658Z 23008KT M06/M07 A3028 RMK A01 T10591067  RH  094%=      5-min Rain = 0
KBO1 090659Z 23009KT M06/M07 A3028 RMK A01 T10591067  RH  094%=      5-min Rain = 0
KBO1 090700Z 23009KT M06/M07 A3028 RMK A01 T10591068  RH  094%=      5-min Rain = 0
KBO1 090701Z 23009KT M06/M07 A3028 RMK A01 T10601069  RH  094%=      5-min Rain = 0
KBO1 090702Z 24009KT M06/M07 A3028 RMK A01 T10611069  RH  094%=      5-min Rain = 0
KBO1 090703Z 24009KT M06/M07 A3028 RMK A01 T10601069  RH  094%=      5-min Rain = 0
KBO1 090704Z 23008KT M06/M07 A3028 RMK A01 T10611069  RH  094%=      5-min Rain = 0
KBO1 090705Z 23008KT M06/M07 A3028 RMK A01 T10591068  RH  094%=      5-min Rain = 0
KBO1 090706Z 24008KT M06/M07 A3028 RMK A01 T10591066  RH  094%=      5-min Rain = 0
KBO1 090707Z 23008KT M06/M07 A3028 RMK A01 T10581065  RH  094%=      5-min Rain = 0
KBO1 090708Z 23008KT M06/M06 A3028 RMK A01 T10571064  RH  095%=      5-min Rain = 0
KBO1 090709Z 23008KT M06/M06 A3028 RMK A01 T10561063  RH  095%=      5-min Rain = 0
KBO1 090710Z 23008KT M06/M06 A3028 RMK A01 T10551062  RH  095%=      5-min Rain = 0
KBO1 090711Z 23008KT M05/M06 A3028 RMK A01 T10541061  RH  095%=      5-min Rain = 0
KBO1 090712Z 24008KT M05/M06 A3028 RMK A01 T10531060  RH  095%=      5-min Rain = 0
KBO1 090713Z 24008KT M05/M06 A3028 RMK A01 T10521059  RH  095%=      5-min Rain = 0
KBO1 090714Z 24008KT M05/M06 A3028 RMK A01 T10521059  RH  095%=      5-min Rain = 0
KBO1 090715Z 24008KT M05/M06 A3028 RMK A01 T10511058  RH  095%=      5-min Rain = 0
KBO1 090716Z 24007KT M05/M06 A3028 RMK A01 T10511058  RH  095%=      5-min Rain = 0
KBO1 090717Z 24007KT M05/M06 A3028 RMK A01 T10511059  RH  095%=      5-min Rain = 0
KBO1 090718Z 24007KT M05/M06 A3028 RMK A01 T10511059  RH  095%=      5-min Rain = 0
KBO1 090719Z 24008KT M05/M06 A3028 RMK A01 T10511059  RH  094%=      5-min Rain = 0
KBO1 090720Z 24008KT M05/M06 A3028 RMK A01 T10511059  RH  094%=      5-min Rain = 0
KBO1 090721Z 24008KT M05/M06 A3028 RMK A01 T10511060  RH  094%=      5-min Rain = 0
KBO1 090722Z 24008KT M05/M06 A3028 RMK A01 T10521060  RH  094%=      5-min Rain = 0
KBO1 090723Z 24008KT M05/M06 A3028 RMK A01 T10521061  RH  094%=      5-min Rain = 0
KBO1 090724Z 24008KT M05/M06 A3028 RMK A01 T10531062  RH  093%=      5-min Rain = 0
KBO1 090725Z 24008KT M05/M06 A3028 RMK A01 T10531062  RH  093%=      5-min Rain = 0
KBO1 090726Z 24008KT M05/M06 A3028 RMK A01 T10531062  RH  093%=      5-min Rain = 0
KBO1 090727Z 24008KT M05/M06 A3028 RMK A01 T10531062  RH  093%=      5-min Rain = 0
KBO1 090728Z 25008KT M05/M06 A3028 RMK A01 T10531062  RH  093%=      5-min Rain = 0
KBO1 090729Z 25008KT M05/M06 A3028 RMK A01 T10531062  RH  093%=      5-min Rain = 0
KBO1 090730Z 25008KT M05/M06 A3028 RMK A01 T10531062  RH  093%=      5-min Rain = 0
KBO1 090731Z 25008KT M05/M06 A3028 RMK A01 T10531062  RH  093%=      5-min Rain = 0
KBO1 090732Z 25008KT M05/M06 A3028 RMK A01 T10531062  RH  093%=      5-min Rain = 0
KBO1 090733Z 25008KT M05/M06 A3028 RMK A01 T10531062  RH  093%=      5-min Rain = 0
KBO1 090734Z 25008KT M05/M06 A3028 RMK A01 T10521062  RH  093%=      5-min Rain = 0
KBO1 090735Z 25008KT M05/M06 A3028 RMK A01 T10521061  RH  093%=      5-min Rain = 0
KBO1 090736Z 25007KT M05/M06 A3028 RMK A01 T10521061  RH  093%=      5-min Rain = 0
KBO1 090737Z 25007KT M05/M06 A3028 RMK A01 T10521061  RH  093%=      5-min Rain = 0
KBO1 090738Z 25007KT M05/M06 A3028 RMK A01 T10521061  RH  093%=      5-min Rain = 0
KBO1 090739Z 25007KT M05/M06 A3028 RMK A01 T10521061  RH  093%=      5-min Rain = 0
KBO1 090740Z 25007KT M05/M06 A3028 RMK A01 T10511061  RH  093%=      5-min Rain = 0
KBO1 090741Z 25007KT M05/M06 A3028 RMK A01 T10521062  RH  093%=      5-min Rain = 0
KBO1 090742Z 25007KT M05/M06 A3028 RMK A01 T10531062  RH  093%=      5-min Rain = 0
KBO1 090743Z 26007KT M05/M06 A3028 RMK A01 T10531063  RH  093%=      5-min Rain = 0
KBO1 090744Z 26007KT M05/M06 A3028 RMK A01 T10531063  RH  093%=      5-min Rain = 0
KBO1 090745Z 26007KT M05/M06 A3028 RMK A01 T10531063  RH  093%=      5-min Rain = 0
KBO1 090746Z 25007KT M05/M06 A3028 RMK A01 T10531063  RH  093%=      5-min Rain = 0
KBO1 090747Z 25007KT M05/M06 A3028 RMK A01 T10541064  RH  093%=      5-min Rain = 0
KBO1 090748Z 26007KT M05/M07 A3028 RMK A01 T10541065  RH  093%=      5-min Rain = 0
KBO1 090749Z 26008KT M06/M07 A3028 RMK A01 T10551065  RH  092%=      5-min Rain = 0
KBO1 090750Z 26007KT M06/M07 A3028 RMK A01 T10551066  RH  092%=      5-min Rain = 0
KBO1 090751Z 26007KT M06/M07 A3028 RMK A01 T10561066  RH  093%=      5-min Rain = 0
KBO1 090752Z 26007KT M06/M07 A3028 RMK A01 T10561066  RH  093%=      5-min Rain = 0
KBO1 090753Z 26007KT M06/M07 A3028 RMK A01 T10561066  RH  093%=      5-min Rain = 0
KBO1 090754Z 26007KT M06/M07 A3028 RMK A01 T10561066  RH  093%=      5-min Rain = 0
KBO1 090755Z 26007KT M06/M07 A3028 RMK A01 T10571067  RH  093%=      5-min Rain = 0
KBO1 090756Z 26007KT M06/M07 A3028 RMK A01 T10571067  RH  093%=      5-min Rain = 0
KBO1 090757Z 26008KT M06/M07 A3028 RMK A01 T10571066  RH  093%=      5-min Rain = 0
KBO1 090758Z 26008KT M06/M07 A3028 RMK A01 T10571067  RH  093%=      5-min Rain = 0
KBO1 090759Z 27008KT M06/M07 A3028 RMK A01 T10571066  RH  093%=      5-min Rain = 0
KBO1 090800Z 27007KT M06/M07 A3028 RMK A01 T10571066  RH  093%=      5-min Rain = 0
KBO1 090801Z 27008KT M06/M07 A3028 RMK A01 T10561065  RH  093%=      5-min Rain = 0
KBO1 090802Z 27007KT M06/M06 A3028 RMK A01 T10551064  RH  093%=      5-min Rain = 0
KBO1 090803Z 27007KT M06/M06 A3028 RMK A01 T10551064  RH  093%=      5-min Rain = 0
KBO1 090804Z 26007KT M05/M06 A3028 RMK A01 T10541062  RH  094%=      5-min Rain = 0
KBO1 090805Z 26007KT M05/M06 A3028 RMK A01 T10531061  RH  094%=      5-min Rain = 0
KBO1 090806Z 26007KT M05/M06 A3028 RMK A01 T10521061  RH  094%=      5-min Rain = 0
KBO1 090807Z 26006KT M05/M06 A3028 RMK A01 T10521060  RH  094%=      5-min Rain = 0
KBO1 090808Z 26006KT M05/M06 A3028 RMK A01 T10511060  RH  094%=      5-min Rain = 0
KBO1 090809Z 27007KT M05/M06 A3028 RMK A01 T10511059  RH  094%=      5-min Rain = 0
KBO1 090810Z 27006KT M05/M06 A3028 RMK A01 T10511060  RH  094%=      5-min Rain = 0
KBO1 090811Z 27006KT M05/M06 A3028 RMK A01 T10511060  RH  094%=      5-min Rain = 0
KBO1 090812Z 27006KT M05/M06 A3028 RMK A01 T10501059  RH  094%=      5-min Rain = 0
KBO1 090813Z 27006KT M05/M06 A3028 RMK A01 T10501059  RH  094%=      5-min Rain = 0
KBO1 090814Z 27006KT M05/M06 A3028 RMK A01 T10501059  RH  094%=      5-min Rain = 0
KBO1 090815Z 27006KT M05/M06 A3028 RMK A01 T10501059  RH  094%=      5-min Rain = 0
KBO1 090816Z 27006KT M05/M06 A3028 RMK A01 T10491058  RH  094%=      5-min Rain = 0
KBO1 090817Z 28006KT M05/M06 A3028 RMK A01 T10491058  RH  094%=      5-min Rain = 0
KBO1 090818Z 28006KT M05/M06 A3029 RMK A01 T10481057  RH  094%=      5-min Rain = 0
KBO1 090819Z 28006KT M05/M06 A3029 RMK A01 T10481056  RH  094%=      5-min Rain = 0
KBO1 090820Z 28007KT M05/M06 A3029 RMK A01 T10481056  RH  094%=      5-min Rain = 0
KBO1 090821Z 28007KT M05/M06 A3029 RMK A01 T10481057  RH  094%=      5-min Rain = 0
KBO1 090822Z 28007KT M05/M06 A3029 RMK A01 T10481057  RH  093%=      5-min Rain = 0
KBO1 090823Z 28007KT M05/M06 A3029 RMK A01 T10481057  RH  093%=      5-min Rain = 0
KBO1 090824Z 28006KT M05/M06 A3029 RMK A01 T10481057  RH  093%=      5-min Rain = 0
KBO1 090825Z 27006KT M05/M06 A3029 RMK A01 T10481058  RH  093%=      5-min Rain = 0
KBO1 090826Z 27006KT M05/M06 A3029 RMK A01 T10481058  RH  093%=      5-min Rain = 0
KBO1 090827Z 27007KT M05/M06 A3029 RMK A01 T10481058  RH  093%=      5-min Rain = 0
KBO1 090828Z 27007KT M05/M06 A3029 RMK A01 T10491059  RH  093%=      5-min Rain = 0
KBO1 090829Z 27007KT M05/M06 A3029 RMK A01 T10481058  RH  093%=      5-min Rain = 0
KBO1 090830Z 28007KT M05/M06 A3029 RMK A01 T10481057  RH  093%=      5-min Rain = 0
KBO1 090831Z 28007KT M05/M06 A3028 RMK A01 T10471057  RH  093%=      5-min Rain = 0
KBO1 090832Z 28007KT M05/M06 A3028 RMK A01 T10461056  RH  093%=      5-min Rain = 0
KBO1 090833Z 28007KT M05/M05 A3028 RMK A01 T10451054  RH  093%=      5-min Rain = 0
KBO1 090834Z 29007KT M05/M05 A3028 RMK A01 T10451054  RH  093%=      5-min Rain = 0
KBO1 090835Z 29008KT M05/M05 A3028 RMK A01 T10451054  RH  093%=      5-min Rain = 0
KBO1 090836Z 29008KT M04/M05 A3028 RMK A01 T10441054  RH  093%=      5-min Rain = 0
KBO1 090837Z 29008KT M04/M05 A3028 RMK A01 T10441054  RH  093%=      5-min Rain = 0
KBO1 090838Z 29008KT M04/M05 A3028 RMK A01 T10441054  RH  093%=      5-min Rain = 0
KBO1 090839Z 29008KT M04/M05 A3028 RMK A01 T10441054  RH  093%=      5-min Rain = 0
KBO1 090840Z 29008KT M04/M05 A3028 RMK A01 T10441054  RH  093%=      5-min Rain = 0
KBO1 090841Z 29008KT M04/M05 A3028 RMK A01 T10441054  RH  092%=      5-min Rain = 0
KBO1 090842Z 29008KT M04/M06 A3028 RMK A01 T10441055  RH  092%=      5-min Rain = 0
KBO1 090843Z 30008KT M04/M05 A3028 RMK A01 T10431054  RH  092%=      5-min Rain = 0
KBO1 090844Z 30008KT M04/M05 A3028 RMK A01 T10431053  RH  092%=      5-min Rain = 0
KBO1 090845Z 30008KT M04/M05 A3028 RMK A01 T10421052  RH  092%=      5-min Rain = 0
KBO1 090846Z 30008KT M04/M05 A3028 RMK A01 T10421052  RH  092%=      5-min Rain = 0
KBO1 090847Z 30008KT M04/M05 A3029 RMK A01 T10411052  RH  092%=      5-min Rain = 0
KBO1 090848Z 30008KT M04/M05 A3029 RMK A01 T10421053  RH  092%=      5-min Rain = 0
KBO1 090849Z 30009KT M04/M05 A3029 RMK A01 T10421053  RH  092%=      5-min Rain = 0
KBO1 090850Z 30008KT M04/M05 A3029 RMK A01 T10421054  RH  091%=      5-min Rain = 0
KBO1 090851Z 30009KT M04/M06 A3029 RMK A01 T10431055  RH  091%=      5-min Rain = 0
KBO1 090852Z 30008KT M04/M06 A3029 RMK A01 T10431056  RH  091%=      5-min Rain = 0
KBO1 090853Z 30009KT M04/M06 A3029 RMK A01 T10431056  RH  091%=      5-min Rain = 0
KBO1 090854Z 30008KT M04/M06 A3029 RMK A01 T10441057  RH  091%=      5-min Rain = 0
KBO1 090855Z 30008KT M04/M06 A3029 RMK A01 T10441057  RH  091%=      5-min Rain = 0
KBO1 090856Z 30008KT M04/M06 A3029 RMK A01 T10441057  RH  091%=      5-min Rain = 0
KBO1 090857Z 30008KT M04/M06 A3029 RMK A01 T10441056  RH  091%=      5-min Rain = 0
KBO1 090858Z 30008KT M04/M06 A3029 RMK A01 T10441056  RH  091%=      5-min Rain = 0
KBO1 090859Z 30008KT M05/M06 A3029 RMK A01 T10451057  RH  091%=      5-min Rain = 0
KBO1 090900Z 30008KT M04/M06 A3029 RMK A01 T10441057  RH  091%=      5-min Rain = 0
KBO1 090901Z 30008KT M04/M06 A3029 RMK A01 T10441056  RH  091%=      5-min Rain = 0
KBO1 090902Z 30008KT M05/M06 A3029 RMK A01 T10451057  RH  091%=      5-min Rain = 0
KBO1 090903Z 30008KT M05/M06 A3029 RMK A01 T10451057  RH  091%=      5-min Rain = 0
KBO1 090904Z 30008KT M05/M06 A3029 RMK A01 T10451057  RH  091%=      5-min Rain = 0
KBO1 090905Z 30008KT M05/M06 A3029 RMK A01 T10451057  RH  091%=      5-min Rain = 0
KBO1 090906Z 31008KT M05/M06 A3029 RMK A01 T10451057  RH  091%=      5-min Rain = 0
KBO1 090907Z 31008KT M05/M06 A3029 RMK A01 T10451057  RH  091%=      5-min Rain = 0
KBO1 090908Z 31008KT M05/M06 A3029 RMK A01 T10451057  RH  091%=      5-min Rain = 0
KBO1 090909Z 30008KT M05/M06 A3029 RMK A01 T10451057  RH  092%=      5-min Rain = 0
KBO1 090910Z 31008KT M05/M06 A3029 RMK A01 T10451056  RH  092%=      5-min Rain = 0
KBO1 090911Z 31008KT M04/M06 A3029 RMK A01 T10441056  RH  092%=      5-min Rain = 0
KBO1 090912Z 31009KT M04/M06 A3029 RMK A01 T10441056  RH  092%=      5-min Rain = 0
KBO1 090913Z 31009KT M04/M06 A3029 RMK A01 T10441055  RH  092%=      5-min Rain = 0
KBO1 090914Z 31009KT M04/M05 A3029 RMK A01 T10431054  RH  092%=      5-min Rain = 0
KBO1 090915Z 31009KT M04/M05 A3029 RMK A01 T10431054  RH  092%=      5-min Rain = 0
KBO1 090916Z 31009KT M04/M05 A3029 RMK A01 T10421053  RH  092%=      5-min Rain = 0
KBO1 090917Z 31008KT M04/M05 A3029 RMK A01 T10421053  RH  092%=      5-min Rain = 0
KBO1 090918Z 31008KT M04/M05 A3029 RMK A01 T10421053  RH  092%=      5-min Rain = 0
KBO1 090919Z 31008KT M04/M05 A3029 RMK A01 T10411052  RH  092%=      5-min Rain = 0
KBO1 090920Z 31008KT M04/M05 A3029 RMK A01 T10411051  RH  092%=      5-min Rain = 0
KBO1 090921Z 31008KT M04/M05 A3029 RMK A01 T10411051  RH  092%=      5-min Rain = 0
KBO1 090922Z 31007KT M04/M05 A3029 RMK A01 T10401051  RH  092%=      5-min Rain = 0
KBO1 090923Z 31007KT M04/M05 A3029 RMK A01 T10391050  RH  093%=      5-min Rain = 0
KBO1 090924Z 31007KT M04/M05 A3029 RMK A01 T10391049  RH  093%=      5-min Rain = 0
KBO1 090925Z 31007KT M04/M05 A3029 RMK A01 T10391049  RH  093%=      5-min Rain = 0
KBO1 090926Z 31007KT M04/M05 A3029 RMK A01 T10381048  RH  093%=      5-min Rain = 0
KBO1 090927Z 31007KT M04/M05 A3029 RMK A01 T10381048  RH  093%=      5-min Rain = 0
KBO1 090928Z 31007KT M04/M05 A3029 RMK A01 T10371047  RH  093%=      5-min Rain = 0
KBO1 090929Z 32006KT M04/M05 A3029 RMK A01 T10371047  RH  093%=      5-min Rain = 0
KBO1 090930Z 32007KT M04/M05 A3029 RMK A01 T10361046  RH  093%=      5-min Rain = 0
KBO1 090931Z 32007KT M04/M05 A3029 RMK A01 T10361046  RH  093%=      5-min Rain = 0
KBO1 090932Z 32007KT M04/M05 A3029 RMK A01 T10361046  RH  093%=      5-min Rain = 0
KBO1 090933Z 32007KT M04/M05 A3029 RMK A01 T10361046  RH  093%=      5-min Rain = 0
KBO1 090934Z 32008KT M04/M05 A3029 RMK A01 T10361046  RH  093%=      5-min Rain = 0
KBO1 090935Z 32008KT M04/M05 A3029 RMK A01 T10361045  RH  093%=      5-min Rain = 0
KBO1 090936Z 32007KT M04/M04 A3029 RMK A01 T10351044  RH  093%=      5-min Rain = 0
KBO1 090937Z 32007KT M03/M04 A3029 RMK A01 T10331042  RH  094%=      5-min Rain = 0
KBO1 090938Z 32007KT M03/M04 A3029 RMK A01 T10321041  RH  094%=      5-min Rain = 0
KBO1 090939Z 32007KT M03/M04 A3029 RMK A01 T10321041  RH  094%=      5-min Rain = 0
KBO1 090940Z 32007KT M03/M04 A3029 RMK A01 T10321041  RH  094%=      5-min Rain = 0
KBO1 090941Z 32007KT M03/M04 A3029 RMK A01 T10321042  RH  093%=      5-min Rain = 0
KBO1 090942Z 32007KT M03/M04 A3029 RMK A01 T10331042  RH  093%=      5-min Rain = 0
KBO1 090943Z 32007KT M03/M04 A3029 RMK A01 T10331042  RH  093%=      5-min Rain = 0
KBO1 090944Z 32007KT M03/M04 A3029 RMK A01 T10331042  RH  093%=      5-min Rain = 0
KBO1 090945Z 32007KT M03/M04 A3029 RMK A01 T10321042  RH  093%=      5-min Rain = 0
KBO1 090946Z 32007KT M03/M04 A303 RMK A01 T10321042  RH  093%=      5-min Rain = 0
KBO1 090947Z 32007KT M03/M04 A303 RMK A01 T10321042  RH  093%=      5-min Rain = 0
KBO1 090948Z 32007KT M03/M04 A303 RMK A01 T10331043  RH  093%=      5-min Rain = 0
KBO1 090949Z 32007KT M03/M04 A303 RMK A01 T10331042  RH  093%=      5-min Rain = 0
KBO1 090950Z 32007KT M03/M04 A3029 RMK A01 T10321042  RH  093%=      5-min Rain = 0
KBO1 090951Z 32007KT M03/M04 A3029 RMK A01 T10331042  RH  093%=      5-min Rain = 0
KBO1 090952Z 32007KT M03/M04 A3029 RMK A01 T10331042  RH  093%=      5-min Rain = 0
KBO1 090953Z 32007KT M03/M04 A3029 RMK A01 T10331042  RH  093%=      5-min Rain = 0
KBO1 090954Z 32007KT M03/M04 A3029 RMK A01 T10321042  RH  093%=      5-min Rain = 0
KBO1 090955Z 32007KT M03/M04 A3029 RMK A01 T10321041  RH  094%=      5-min Rain = 0
KBO1 090956Z 32006KT M03/M04 A3029 RMK A01 T10321041  RH  094%=      5-min Rain = 0
KBO1 090957Z 32006KT M03/M04 A3029 RMK A01 T10331042  RH  094%=      5-min Rain = 0
KBO1 090958Z 32006KT M03/M04 A3029 RMK A01 T10331042  RH  093%=      5-min Rain = 0
KBO1 090959Z 32006KT M03/M04 A3029 RMK A01 T10331042  RH  093%=      5-min Rain = 0
KBO1 091000Z 32006KT M03/M04 A3029 RMK A01 T10331042  RH  094%=      5-min Rain = 0
KBO1 091001Z 32006KT M03/M04 A3029 RMK A01 T10331042  RH  094%=      5-min Rain = 0
KBO1 091002Z 32006KT M03/M04 A3029 RMK A01 T10331042  RH  094%=      5-min Rain = 0
KBO1 091003Z 32007KT M03/M04 A3029 RMK A01 T10341043  RH  094%=      5-min Rain = 0
KBO1 091004Z 32007KT M03/M04 A3029 RMK A01 T10341043  RH  094%=      5-min Rain = 0
KBO1 091005Z 32007KT M03/M04 A3029 RMK A01 T10341043  RH  094%=      5-min Rain = 0
KBO1 091006Z 32007KT M03/M04 A3029 RMK A01 T10341042  RH  094%=      5-min Rain = 0
KBO1 091007Z 32007KT M03/M04 A3029 RMK A01 T10341042  RH  094%=      5-min Rain = 0
KBO1 091008Z 32007KT M03/M04 A3029 RMK A01 T10341042  RH  094%=      5-min Rain = 0
KBO1 091009Z 32007KT M03/M04 A3029 RMK A01 T10341042  RH  094%=      5-min Rain = 0
KBO1 091010Z 32006KT M03/M04 A3029 RMK A01 T10341042  RH  094%=      5-min Rain = 0
KBO1 091011Z 32006KT M03/M04 A3029 RMK A01 T10341042  RH  094%=      5-min Rain = 0
KBO1 091012Z 32006KT M03/M04 A3029 RMK A01 T10341043  RH  094%=      5-min Rain = 0
KBO1 091013Z 32007KT M04/M04 A3029 RMK A01 T10351043  RH  094%=      5-min Rain = 0
KBO1 091014Z 32007KT M04/M04 A3029 RMK A01 T10351043  RH  094%=      5-min Rain = 0
KBO1 091015Z 32007KT M04/M04 A3029 RMK A01 T10361044  RH  094%=      5-min Rain = 0
KBO1 091016Z 32007KT M04/M04 A3029 RMK A01 T10361044  RH  094%=      5-min Rain = 0
KBO1 091017Z 32007KT M04/M05 A3029 RMK A01 T10361045  RH  094%=      5-min Rain = 0
KBO1 091018Z 32007KT M04/M05 A3029 RMK A01 T10371045  RH  094%=      5-min Rain = 0
KBO1 091019Z 32007KT M04/M05 A3029 RMK A01 T10371046  RH  094%=      5-min Rain = 0
KBO1 091020Z 32007KT M04/M05 A3029 RMK A01 T10381046  RH  094%=      5-min Rain = 0
KBO1 091021Z 32007KT M04/M05 A3029 RMK A01 T10381046  RH  094%=      5-min Rain = 0
KBO1 091022Z 32007KT M04/M05 A3029 RMK A01 T10381047  RH  094%=      5-min Rain = 0
KBO1 091023Z 32007KT M04/M05 A3029 RMK A01 T10381047  RH  094%=      5-min Rain = 0
KBO1 091024Z 32007KT M04/M05 A3029 RMK A01 T10391047  RH  094%=      5-min Rain = 0
KBO1 091025Z 32007KT M04/M05 A3029 RMK A01 T10391047  RH  094%=      5-min Rain = 0
KBO1 091026Z 32006KT M04/M05 A3029 RMK A01 T10391047  RH  094%=      5-min Rain = 0
KBO1 091027Z 32006KT M04/M05 A3029 RMK A01 T10401048  RH  094%=      5-min Rain = 0
KBO1 091028Z 32007KT M04/M05 A3029 RMK A01 T10401048  RH  094%=      5-min Rain = 0
KBO1 091029Z 32007KT M04/M05 A3029 RMK A01 T10411049  RH  094%=      5-min Rain = 0
KBO1 091030Z 31007KT M04/M05 A3029 RMK A01 T10411050  RH  094%=      5-min Rain = 0
KBO1 091031Z 31007KT M04/M05 A3029 RMK A01 T10421051  RH  094%=      5-min Rain = 0
KBO1 091032Z 31007KT M04/M05 A3029 RMK A01 T10421051  RH  094%=      5-min Rain = 0
KBO1 091033Z 31007KT M04/M05 A3029 RMK A01 T10421051  RH  094%=      5-min Rain = 0
KBO1 091034Z 31007KT M04/M05 A3029 RMK A01 T10431052  RH  094%=      5-min Rain = 0
KBO1 091035Z 30007KT M04/M05 A3029 RMK A01 T10441052  RH  094%=      5-min Rain = 0
KBO1 091036Z 30006KT M04/M05 A3029 RMK A01 T10441053  RH  094%=      5-min Rain = 0
KBO1 091037Z 30006KT M04/M05 A3029 RMK A01 T10441052  RH  094%=      5-min Rain = 0
KBO1 091038Z 30006KT M04/M05 A3029 RMK A01 T10441052  RH  094%=      5-min Rain = 0
KBO1 091039Z 30006KT M04/M05 A3029 RMK A01 T10441052  RH  094%=      5-min Rain = 0
KBO1 091040Z 30006KT M04/M05 A3029 RMK A01 T10441052  RH  094%=      5-min Rain = 0
KBO1 091041Z 30006KT M04/M05 A3029 RMK A01 T10441052  RH  094%=      5-min Rain = 0
KBO1 091042Z 30006KT M04/M05 A3029 RMK A01 T10441051  RH  094%=      5-min Rain = 0
KBO1 091043Z 30006KT M04/M05 A3029 RMK A01 T10441052  RH  094%=      5-min Rain = 0
KBO1 091044Z 30006KT M04/M05 A3029 RMK A01 T10441052  RH  094%=      5-min Rain = 0
KBO1 091045Z 29006KT M04/M05 A3029 RMK A01 T10441052  RH  095%=      5-min Rain = 0
KBO1 091046Z 29006KT M04/M05 A3029 RMK A01 T10441052  RH  095%=      5-min Rain = 0
KBO1 091047Z 29006KT M04/M05 A3029 RMK A01 T10441052  RH  095%=      5-min Rain = 0
KBO1 091048Z 30006KT M05/M05 A3029 RMK A01 T10451052  RH  095%=      5-min Rain = 0
KBO1 091049Z 30006KT M04/M05 A3029 RMK A01 T10441052  RH  095%=      5-min Rain = 0
KBO1 091050Z 30005KT M04/M05 A3029 RMK A01 T10441052  RH  095%=      5-min Rain = 0
KBO1 091051Z 30005KT M04/M05 A3029 RMK A01 T10441051  RH  095%=      5-min Rain = 0
KBO1 091052Z 30006KT M04/M05 A3029 RMK A01 T10441052  RH  095%=      5-min Rain = 0
KBO1 091053Z 30006KT M05/M05 A3029 RMK A01 T10451052  RH  095%=      5-min Rain = 0
KBO1 091054Z 30006KT M05/M05 A3029 RMK A01 T10451052  RH  095%=      5-min Rain = 0
KBO1 091055Z 29006KT M04/M05 A3029 RMK A01 T10441051  RH  095%=      5-min Rain = 0
KBO1 091056Z 29006KT M04/M05 A3029 RMK A01 T10441051  RH  095%=      5-min Rain = 0
KBO1 091057Z 29006KT M04/M05 A3029 RMK A01 T10441051  RH  095%=      5-min Rain = 0
KBO1 091058Z 29007KT M04/M05 A3029 RMK A01 T10441051  RH  095%=      5-min Rain = 0
KBO1 091059Z 29007KT M04/M05 A3029 RMK A01 T10441050  RH  095%=      5-min Rain = 0
KBO1 091100Z 29007KT M04/M05 A3029 RMK A01 T10441050  RH  095%=      5-min Rain = 0
KBO1 091101Z 29006KT M04/M05 A3029 RMK A01 T10431050  RH  095%=      5-min Rain = 0
KBO1 091102Z 29006KT M04/M05 A3029 RMK A01 T10431050  RH  095%=      5-min Rain = 0
KBO1 091103Z 29006KT M04/M05 A3029 RMK A01 T10441050  RH  095%=      5-min Rain = 0
KBO1 091104Z 29006KT M04/M05 A3029 RMK A01 T10441050  RH  095%=      5-min Rain = 0
KBO1 091105Z 29006KT M04/M05 A3028 RMK A01 T10441050  RH  095%=      5-min Rain = 0
KBO1 091106Z 29006KT M04/M05 A3028 RMK A01 T10441050  RH  095%=      5-min Rain = 0
KBO1 091107Z 29006KT M04/M05 A3028 RMK A01 T10441051  RH  095%=      5-min Rain = 0
KBO1 091108Z 29006KT M04/M05 A3028 RMK A01 T10441051  RH  095%=      5-min Rain = 0
KBO1 091109Z 29006KT M04/M05 A3028 RMK A01 T10441051  RH  095%=      5-min Rain = 0
KBO1 091110Z 29007KT M04/M05 A3028 RMK A01 T10441051  RH  095%=      5-min Rain = 0
KBO1 091111Z 29007KT M04/M05 A3028 RMK A01 T10441051  RH  095%=      5-min Rain = 0
KBO1 091112Z 29007KT M04/M05 A3028 RMK A01 T10441051  RH  095%=      5-min Rain = 0
KBO1 091113Z 29007KT M04/M05 A3028 RMK A01 T10441051  RH  095%=      5-min Rain = 0
KBO1 091114Z 29008KT M04/M05 A3028 RMK A01 T10441051  RH  095%=      5-min Rain = 0
KBO1 091115Z 29008KT M04/M05 A3029 RMK A01 T10441051  RH  095%=      5-min Rain = 0
KBO1 091116Z 29008KT M04/M05 A3029 RMK A01 T10441051  RH  095%=      5-min Rain = 0
KBO1 091117Z 30008KT M04/M05 A3029 RMK A01 T10441050  RH  095%=      5-min Rain = 0
KBO1 091118Z 30008KT M04/M05 A3029 RMK A01 T10431050  RH  095%=      5-min Rain = 0
KBO1 091119Z 30008KT M04/M05 A3029 RMK A01 T10431049  RH  095%=      5-min Rain = 0
KBO1 091120Z 30008KT M04/M05 A3029 RMK A01 T10431049  RH  095%=      5-min Rain = 0
KBO1 091121Z 30008KT M04/M05 A3029 RMK A01 T10421049  RH  095%=      5-min Rain = 0
KBO1 091122Z 30008KT M04/M05 A3029 RMK A01 T10421048  RH  095%=      5-min Rain = 0
KBO1 091123Z 30008KT M04/M05 A3029 RMK A01 T10421049  RH  095%=      5-min Rain = 0
KBO1 091124Z 30008KT M04/M05 A3029 RMK A01 T10421049  RH  095%=      5-min Rain = 0
KBO1 091125Z 30008KT M04/M05 A3029 RMK A01 T10421049  RH  095%=      5-min Rain = 0
KBO1 091126Z 30008KT M04/M05 A3029 RMK A01 T10431049  RH  095%=      5-min Rain = 0
KBO1 091127Z 30008KT M04/M05 A3029 RMK A01 T10431050  RH  095%=      5-min Rain = 0
KBO1 091128Z 30008KT M04/M05 A3029 RMK A01 T10431050  RH  095%=      5-min Rain = 0
KBO1 091129Z 30009KT M04/M05 A3029 RMK A01 T10431050  RH  095%=      5-min Rain = 0
KBO1 091130Z 30008KT M04/M05 A3029 RMK A01 T10431050  RH  095%=      5-min Rain = 0
KBO1 091131Z 30008KT M04/M05 A3029 RMK A01 T10431050  RH  095%=      5-min Rain = 0
KBO1 091132Z 30008KT M04/M05 A3029 RMK A01 T10431050  RH  095%=      5-min Rain = 0
KBO1 091133Z 30008KT M04/M05 A3029 RMK A01 T10431050  RH  095%=      5-min Rain = 0
KBO1 091134Z 30008KT M04/M05 A3029 RMK A01 T10431050  RH  095%=      5-min Rain = 0
KBO1 091135Z 31009KT M04/M05 A3029 RMK A01 T10431050  RH  095%=      5-min Rain = 0
KBO1 091136Z 31009KT M04/M05 A3029 RMK A01 T10431050  RH  095%=      5-min Rain = 0
KBO1 091137Z 31009KT M04/M05 A3029 RMK A01 T10431050  RH  095%=      5-min Rain = 0
KBO1 091138Z 31009KT M04/M05 A3029 RMK A01 T10431050  RH  095%=      5-min Rain = 0
KBO1 091139Z 30009KT M04/M05 A3029 RMK A01 T10431050  RH  095%=      5-min Rain = 0
KBO1 091140Z 30009KT M04/M05 A3029 RMK A01 T10431050  RH  095%=      5-min Rain = 0
KBO1 091141Z 30009KT M04/M05 A303 RMK A01 T10441051  RH  095%=      5-min Rain = 0
KBO1 091142Z 30009KT M04/M05 A303 RMK A01 T10441052  RH  095%=      5-min Rain = 0
KBO1 091143Z 31008KT M04/M05 A303 RMK A01 T10441052  RH  094%=      5-min Rain = 0
KBO1 091144Z 30008KT M04/M05 A303 RMK A01 T10441052  RH  094%=      5-min Rain = 0
KBO1 091145Z 31008KT M05/M05 A303 RMK A01 T10451053  RH  094%=      5-min Rain = 0
KBO1 091146Z 31009KT M05/M05 A303 RMK A01 T10451053  RH  094%=      5-min Rain = 0
KBO1 091147Z 31009KT M05/M05 A303 RMK A01 T10451053  RH  094%=      5-min Rain = 0
KBO1 091148Z 31008KT M05/M05 A303 RMK A01 T10461053  RH  094%=      5-min Rain = 0
KBO1 091149Z 30008KT M05/M05 A303 RMK A01 T10461054  RH  094%=      5-min Rain = 0
KBO1 091150Z 30008KT M05/M06 A303 RMK A01 T10471055  RH  094%=      5-min Rain = 0
KBO1 091151Z 30008KT M05/M06 A3029 RMK A01 T10471055  RH  094%=      5-min Rain = 0
KBO1 091152Z 30008KT M05/M06 A3029 RMK A01 T10471055  RH  094%=      5-min Rain = 0
KBO1 091153Z 30008KT M05/M06 A3029 RMK A01 T10471055  RH  094%=      5-min Rain = 0
KBO1 091154Z 30008KT M05/M06 A3029 RMK A01 T10471056  RH  094%=      5-min Rain = 0
KBO1 091155Z 30008KT M05/M06 A3029 RMK A01 T10481056  RH  094%=      5-min Rain = 0
KBO1 091156Z 30008KT M05/M06 A3029 RMK A01 T10481057  RH  094%=      5-min Rain = 0
KBO1 091157Z 30008KT M05/M06 A3029 RMK A01 T10491057  RH  094%=      5-min Rain = 0
KBO1 091158Z 30008KT M05/M06 A3029 RMK A01 T10491058  RH  094%=      5-min Rain = 0
KBO1 091159Z 30008KT M05/M06 A3029 RMK A01 T10501058  RH  094%=      5-min Rain = 0
KBO1 091200Z 30008KT M05/M06 A303 RMK A01 T10491058  RH  094%=      5-min Rain = 0
KBO1 091201Z 30008KT M05/M06 A303 RMK A01 T10501058  RH  094%=      5-min Rain = 0
KBO1 091202Z 30008KT M05/M06 A303 RMK A01 T10501059  RH  094%=      5-min Rain = 0
KBO1 091203Z 30008KT M05/M06 A303 RMK A01 T10501059  RH  094%=      5-min Rain = 0
KBO1 091204Z 30009KT M05/M06 A303 RMK A01 T10501059  RH  094%=      5-min Rain = 0
KBO1 091205Z 30009KT M05/M06 A303 RMK A01 T10501059  RH  094%=      5-min Rain = 0
KBO1 091206Z 30009KT M05/M06 A303 RMK A01 T10511059  RH  094%=      5-min Rain = 0
KBO1 091207Z 30009KT M05/M06 A303 RMK A01 T10511059  RH  094%=      5-min Rain = 0
KBO1 091208Z 30010KT M05/M06 A303 RMK A01 T10511059  RH  094%=      5-min Rain = 0
KBO1 091209Z 30010KT M05/M06 A303 RMK A01 T10511059  RH  094%=      5-min Rain = 0
KBO1 091210Z 30010KT M05/M06 A303 RMK A01 T10511059  RH  094%=      5-min Rain = 0
KBO1 091211Z 30009KT M05/M06 A303 RMK A01 T10501058  RH  094%=      5-min Rain = 0
KBO1 091212Z 30009KT M05/M06 A303 RMK A01 T10491057  RH  094%=      5-min Rain = 0
KBO1 091213Z 30009KT M05/M06 A303 RMK A01 T10491056  RH  095%=      5-min Rain = 0
KBO1 091214Z 31009KT M05/M06 A303 RMK A01 T10491057  RH  095%=      5-min Rain = 0
KBO1 091215Z 31009KT M05/M06 A303 RMK A01 T10491056  RH  095%=      5-min Rain = 0
KBO1 091216Z 31009KT M05/M06 A303 RMK A01 T10491056  RH  095%=      5-min Rain = 0
KBO1 091217Z 31009KT M05/M06 A303 RMK A01 T10491057  RH  094%=      5-min Rain = 0
KBO1 091218Z 31009KT M05/M06 A303 RMK A01 T10491057  RH  094%=      5-min Rain = 0
KBO1 091219Z 31009KT M05/M06 A303 RMK A01 T10501058  RH  094%=      5-min Rain = 0
KBO1 091220Z 31009KT M05/M06 A303 RMK A01 T10501058  RH  094%=      5-min Rain = 0
KBO1 091221Z 31009KT M05/M06 A303 RMK A01 T10501059  RH  094%=      5-min Rain = 0
KBO1 091222Z 31009KT M05/M06 A303 RMK A01 T10511059  RH  094%=      5-min Rain = 0
KBO1 091223Z 31008KT M05/M06 A303 RMK A01 T10511059  RH  094%=      5-min Rain = 0
KBO1 091224Z 31008KT M05/M06 A303 RMK A01 T10511059  RH  094%=      5-min Rain = 0
KBO1 091225Z 31008KT M05/M06 A303 RMK A01 T10511059  RH  094%=      5-min Rain = 0
KBO1 091226Z 31008KT M05/M06 A303 RMK A01 T10511059  RH  094%=      5-min Rain = 0
KBO1 091227Z 31009KT M05/M06 A303 RMK A01 T10511060  RH  094%=      5-min Rain = 0
KBO1 091228Z 31009KT M05/M06 A303 RMK A01 T10521061  RH  093%=      5-min Rain = 0
KBO1 091229Z 31009KT M05/M06 A303 RMK A01 T10531062  RH  093%=      5-min Rain = 0
KBO1 091230Z 30009KT M05/M06 A303 RMK A01 T10531062  RH  093%=      5-min Rain = 0
KBO1 091231Z 30008KT M05/M06 A303 RMK A01 T10531062  RH  093%=      5-min Rain = 0
KBO1 091232Z 30008KT M05/M06 A303 RMK A01 T10531062  RH  093%=      5-min Rain = 0
KBO1 091233Z 30008KT M05/M06 A303 RMK A01 T10531062  RH  093%=      5-min Rain = 0
KBO1 091234Z 31009KT M05/M06 A303 RMK A01 T10531062  RH  094%=      5-min Rain = 0
KBO1 091235Z 31009KT M05/M06 A303 RMK A01 T10531062  RH  094%=      5-min Rain = 0
KBO1 091236Z 31008KT M05/M06 A3031 RMK A01 T10541063  RH  094%=      5-min Rain = 0
KBO1 091237Z 31009KT M06/M06 A3031 RMK A01 T10551064  RH  093%=      5-min Rain = 0
KBO1 091238Z 31009KT M06/M06 A3031 RMK A01 T10551064  RH  094%=      5-min Rain = 0
KBO1 091239Z 31009KT M05/M06 A3031 RMK A01 T10541063  RH  094%=      5-min Rain = 0
KBO1 091240Z 31008KT M05/M06 A3031 RMK A01 T10541063  RH  094%=      5-min Rain = 0
KBO1 091241Z 31008KT M05/M06 A3031 RMK A01 T10541063  RH  094%=      5-min Rain = 0
KBO1 091242Z 31008KT M05/M06 A3031 RMK A01 T10541062  RH  094%=      5-min Rain = 0
KBO1 091243Z 31008KT M05/M06 A3031 RMK A01 T10541062  RH  094%=      5-min Rain = 0
KBO1 091244Z 30008KT M05/M06 A3031 RMK A01 T10541062  RH  094%=      5-min Rain = 0
KBO1 091245Z 30008KT M05/M06 A3031 RMK A01 T10541063  RH  094%=      5-min Rain = 0
KBO1 091246Z 30008KT M05/M06 A3031 RMK A01 T10541063  RH  094%=      5-min Rain = 0
KBO1 091247Z 30008KT M06/M06 A3031 RMK A01 T10551064  RH  094%=      5-min Rain = 0
KBO1 091248Z 30007KT M06/M06 A3031 RMK A01 T10551063  RH  094%=      5-min Rain = 0
KBO1 091249Z 30007KT M06/M06 A3031 RMK A01 T10551064  RH  094%=      5-min Rain = 0
KBO1 091250Z 30008KT M06/M06 A3031 RMK A01 T10551064  RH  094%=      5-min Rain = 0
KBO1 091251Z 30008KT M06/M06 A3031 RMK A01 T10551064  RH  094%=      5-min Rain = 0
KBO1 091252Z 30008KT M06/M06 A3031 RMK A01 T10561064  RH  094%=      5-min Rain = 0
KBO1 091253Z 30008KT M06/M06 A3031 RMK A01 T10561064  RH  094%=      5-min Rain = 0
KBO1 091254Z 30008KT M06/M06 A3031 RMK A01 T10561064  RH  094%=      5-min Rain = 0
KBO1 091255Z 30008KT M06/M06 A3032 RMK A01 T10561064  RH  094%=      5-min Rain = 0
KBO1 091256Z 31008KT M06/M07 A3032 RMK A01 T10571065  RH  094%=      5-min Rain = 0
KBO1 091257Z 31008KT M06/M07 A3032 RMK A01 T10571065  RH  094%=      5-min Rain = 0
KBO1 091258Z 31008KT M06/M07 A3032 RMK A01 T10571066  RH  094%=      5-min Rain = 0
KBO1 091259Z 31008KT M06/M07 A3032 RMK A01 T10571065  RH  094%=      5-min Rain = 0
KBO1 091300Z 31008KT M06/M07 A3032 RMK A01 T10571066  RH  094%=      5-min Rain = 0
KBO1 091301Z 31008KT M06/M07 A3032 RMK A01 T10571065  RH  094%=      5-min Rain = 0
KBO1 091302Z 31008KT M06/M07 A3032 RMK A01 T10571065  RH  094%=      5-min Rain = 0
KBO1 091303Z 31008KT M06/M07 A3032 RMK A01 T10571065  RH  094%=      5-min Rain = 0
KBO1 091304Z 30008KT M06/M07 A3032 RMK A01 T10571065  RH  094%=      5-min Rain = 0
KBO1 091305Z 30008KT M06/M07 A3032 RMK A01 T10571065  RH  094%=      5-min Rain = 0
KBO1 091306Z 31008KT M06/M06 A3032 RMK A01 T10561064  RH  094%=      5-min Rain = 0
KBO1 091307Z 31007KT M06/M06 A3032 RMK A01 T10561064  RH  094%=      5-min Rain = 0
KBO1 091308Z 30008KT M06/M06 A3032 RMK A01 T10551063  RH  094%=      5-min Rain = 0
KBO1 091309Z 30007KT M06/M06 A3032 RMK A01 T10551063  RH  094%=      5-min Rain = 0
KBO1 091310Z 30007KT M05/M06 A3033 RMK A01 T10541063  RH  094%=      5-min Rain = 0
KBO1 091311Z 30007KT M05/M06 A3033 RMK A01 T10541063  RH  094%=      5-min Rain = 0
KBO1 091312Z 30007KT M05/M06 A3033 RMK A01 T10541063  RH  094%=      5-min Rain = 0
KBO1 091313Z 30007KT M06/M06 A3033 RMK A01 T10551063  RH  094%=      5-min Rain = 0
KBO1 091314Z 30007KT M06/M06 A3033 RMK A01 T10551064  RH  094%=      5-min Rain = 0
KBO1 091315Z 30007KT M06/M06 A3033 RMK A01 T10551064  RH  093%=      5-min Rain = 0
KBO1 091316Z 30007KT M06/M07 A3033 RMK A01 T10561065  RH  093%=      5-min Rain = 0
KBO1 091317Z 30006KT M06/M07 A3033 RMK A01 T10561065  RH  093%=      5-min Rain = 0
KBO1 091318Z 30006KT M06/M07 A3033 RMK A01 T10561066  RH  093%=      5-min Rain = 0
KBO1 091319Z 30006KT M06/M07 A3033 RMK A01 T10561066  RH  093%=      5-min Rain = 0
KBO1 091320Z 30006KT M06/M07 A3033 RMK A01 T10571066  RH  093%=      5-min Rain = 0
KBO1 091321Z 30006KT M06/M07 A3033 RMK A01 T10571067  RH  093%=      5-min Rain = 0
KBO1 091322Z 30006KT M06/M07 A3033 RMK A01 T10571066  RH  093%=      5-min Rain = 0
KBO1 091323Z 30006KT M06/M07 A3033 RMK A01 T10571067  RH  093%=      5-min Rain = 0
KBO1 091324Z 30006KT M06/M07 A3033 RMK A01 T10581067  RH  093%=      5-min Rain = 0
KBO1 091325Z 30006KT M06/M07 A3033 RMK A01 T10581068  RH  093%=      5-min Rain = 0
KBO1 091326Z 30006KT M06/M07 A3033 RMK A01 T10581068  RH  093%=      5-min Rain = 0
KBO1 091327Z 30006KT M06/M07 A3033 RMK A01 T10581068  RH  093%=      5-min Rain = 0
KBO1 091328Z 30006KT M06/M07 A3033 RMK A01 T10591069  RH  093%=      5-min Rain = 0
KBO1 091329Z 30006KT M06/M07 A3033 RMK A01 T10581068  RH  093%=      5-min Rain = 0
KBO1 091330Z 31006KT M06/M07 A3033 RMK A01 T10581068  RH  093%=      5-min Rain = 0
KBO1 091331Z 30005KT M06/M07 A3033 RMK A01 T10581068  RH  093%=      5-min Rain = 0
KBO1 091332Z 30006KT M06/M07 A3033 RMK A01 T10581068  RH  093%=      5-min Rain = 0
KBO1 091333Z 30006KT M06/M07 A3033 RMK A01 T10581067  RH  093%=      5-min Rain = 0
KBO1 091334Z 30006KT M06/M07 A3033 RMK A01 T10581067  RH  093%=      5-min Rain = 0
KBO1 091335Z 30006KT M06/M07 A3033 RMK A01 T10581067  RH  093%=      5-min Rain = 0
KBO1 091336Z 30006KT M06/M07 A3033 RMK A01 T10581068  RH  093%=      5-min Rain = 0
KBO1 091337Z 31006KT M06/M07 A3033 RMK A01 T10581068  RH  093%=      5-min Rain = 0
KBO1 091338Z 30006KT M06/M07 A3033 RMK A01 T10581068  RH  093%=      5-min Rain = 0
KBO1 091339Z 30006KT M06/M07 A3033 RMK A01 T10581067  RH  093%=      5-min Rain = 0
KBO1 091340Z 30006KT M06/M07 A3033 RMK A01 T10571066  RH  093%=      5-min Rain = 0
KBO1 091341Z 30006KT M06/M07 A3033 RMK A01 T10571066  RH  093%=      5-min Rain = 0
KBO1 091342Z 30006KT M06/M07 A3033 RMK A01 T10571066  RH  094%=      5-min Rain = 0
KBO1 091343Z 30006KT M06/M07 A3033 RMK A01 T10561065  RH  094%=      5-min Rain = 0
KBO1 091344Z 30006KT M06/M06 A3033 RMK A01 T10561064  RH  094%=      5-min Rain = 0
KBO1 091345Z 31006KT M06/M07 A3034 RMK A01 T10561065  RH  094%=      5-min Rain = 0
KBO1 091346Z 30006KT M06/M07 A3034 RMK A01 T10561065  RH  094%=      5-min Rain = 0
KBO1 091347Z 30006KT M06/M07 A3034 RMK A01 T10561065  RH  093%=      5-min Rain = 0
KBO1 091348Z 30006KT M06/M06 A3034 RMK A01 T10561064  RH  093%=      5-min Rain = 0
KBO1 091349Z 31006KT M06/M06 A3034 RMK A01 T10551064  RH  094%=      5-min Rain = 0
KBO1 091350Z 31006KT M06/M06 A3034 RMK A01 T10551064  RH  094%=      5-min Rain = 0
KBO1 091351Z 31006KT M06/M06 A3034 RMK A01 T10551064  RH  093%=      5-min Rain = 0
KBO1 091352Z 31006KT M06/M07 A3034 RMK A01 T10561065  RH  093%=      5-min Rain = 0
KBO1 091353Z 31006KT M06/M07 A3034 RMK A01 T10561066  RH  093%=      5-min Rain = 0
KBO1 091354Z 30006KT M06/M07 A3034 RMK A01 T10561065  RH  093%=      5-min Rain = 0
KBO1 091355Z 30006KT M06/M07 A3034 RMK A01 T10561065  RH  093%=      5-min Rain = 0
KBO1 091356Z 30006KT M06/M07 A3034 RMK A01 T10561065  RH  093%=      5-min Rain = 0
KBO1 091357Z 30007KT M06/M07 A3034 RMK A01 T10561066  RH  093%=      5-min Rain = 0
KBO1 091358Z 30007KT M06/M07 A3034 RMK A01 T10561066  RH  093%=      5-min Rain = 0
KBO1 091359Z 30007KT M06/M07 A3034 RMK A01 T10561065  RH  093%=      5-min Rain = 0
KBO1 091400Z 30007KT M06/M07 A3034 RMK A01 T10551065  RH  093%=      5-min Rain = 0
KBO1 091401Z 30007KT M06/M07 A3034 RMK A01 T10561065  RH  093%=      5-min Rain = 0
KBO1 091402Z 30007KT M06/M07 A3034 RMK A01 T10551065  RH  093%=      5-min Rain = 0
KBO1 091403Z 30007KT M05/M06 A3034 RMK A01 T10541064  RH  093%=      5-min Rain = 0
KBO1 091404Z 30007KT M05/M07 A3034 RMK A01 T10541065  RH  093%=      5-min Rain = 0
KBO1 091405Z 30007KT M05/M07 A3034 RMK A01 T10541065  RH  093%=      5-min Rain = 0
KBO1 091406Z 30007KT M06/M07 A3034 RMK A01 T10551065  RH  093%=      5-min Rain = 0
KBO1 091407Z 31007KT M05/M07 A3034 RMK A01 T10541065  RH  092%=      5-min Rain = 0
KBO1 091408Z 31007KT M05/M06 A3034 RMK A01 T10541064  RH  092%=      5-min Rain = 0
KBO1 091409Z 31007KT M05/M06 A3034 RMK A01 T10541064  RH  092%=      5-min Rain = 0
KBO1 091410Z 31007KT M05/M06 A3034 RMK A01 T10541064  RH  092%=      5-min Rain = 0
KBO1 091411Z 30007KT M05/M06 A3034 RMK A01 T10541064  RH  092%=      5-min Rain = 0
KBO1 091412Z 30007KT M05/M06 A3034 RMK A01 T10531063  RH  092%=      5-min Rain = 0
KBO1 091413Z 31007KT M05/M06 A3034 RMK A01 T10521062  RH  092%=      5-min Rain = 0
KBO1 091414Z 30007KT M05/M06 A3034 RMK A01 T10521062  RH  092%=      5-min Rain = 0
KBO1 091415Z 30007KT M05/M06 A3034 RMK A01 T10521062  RH  093%=      5-min Rain = 0
KBO1 091416Z 31007KT M05/M06 A3034 RMK A01 T10511061  RH  093%=      5-min Rain = 0
KBO1 091417Z 31007KT M05/M06 A3034 RMK A01 T10501060  RH  093%=      5-min Rain = 0
KBO1 091418Z 30007KT M05/M06 A3034 RMK A01 T10501060  RH  093%=      5-min Rain = 0
KBO1 091419Z 30007KT M05/M06 A3034 RMK A01 T10491059  RH  093%=      5-min Rain = 0
KBO1 091420Z 30007KT M05/M06 A3034 RMK A01 T10491059  RH  092%=      5-min Rain = 0
KBO1 091421Z 30007KT M05/M06 A3034 RMK A01 T10481058  RH  092%=      5-min Rain = 0
KBO1 091422Z 30007KT M05/M06 A3034 RMK A01 T10471058  RH  092%=      5-min Rain = 0
KBO1 091423Z 30007KT M05/M06 A3034 RMK A01 T10461057  RH  092%=      5-min Rain = 0
KBO1 091424Z 30007KT M05/M06 A3034 RMK A01 T10461057  RH  092%=      5-min Rain = 0
KBO1 091425Z 30007KT M05/M06 A3034 RMK A01 T10461056  RH  092%=      5-min Rain = 0
KBO1 091426Z 30008KT M05/M06 A3034 RMK A01 T10451056  RH  092%=      5-min Rain = 0
KBO1 091427Z 31008KT M04/M06 A3034 RMK A01 T10441055  RH  092%=      5-min Rain = 0
KBO1 091428Z 30008KT M04/M06 A3034 RMK A01 T10431055  RH  092%=      5-min Rain = 0
KBO1 091429Z 30008KT M04/M06 A3034 RMK A01 T10431055  RH  092%=      5-min Rain = 0
KBO1 091430Z 31008KT M04/M05 A3034 RMK A01 T10431054  RH  092%=      5-min Rain = 0
KBO1 091431Z 31007KT M04/M05 A3035 RMK A01 T10421053  RH  092%=      5-min Rain = 0
KBO1 091432Z 30007KT M04/M05 A3035 RMK A01 T10411052  RH  092%=      5-min Rain = 0
KBO1 091433Z 30007KT M04/M05 A3035 RMK A01 T10401052  RH  092%=      5-min Rain = 0
KBO1 091434Z 30007KT M04/M05 A3034 RMK A01 T10391051  RH  092%=      5-min Rain = 0
KBO1 091435Z 30006KT M04/M05 A3034 RMK A01 T10381050  RH  092%=      5-min Rain = 0
KBO1 091436Z 30006KT M04/M05 A3034 RMK A01 T10381050  RH  092%=      5-min Rain = 0
KBO1 091437Z 30006KT M04/M05 A3034 RMK A01 T10371049  RH  091%=      5-min Rain = 0
KBO1 091438Z 30006KT M04/M05 A3034 RMK A01 T10361048  RH  091%=      5-min Rain = 0
KBO1 091439Z 29006KT M04/M05 A3035 RMK A01 T10351048  RH  091%=      5-min Rain = 0
KBO1 091440Z 30006KT M03/M05 A3035 RMK A01 T10341046  RH  091%=      5-min Rain = 0
KBO1 091441Z 30006KT M03/M05 A3035 RMK A01 T10331046  RH  091%=      5-min Rain = 0
KBO1 091442Z 30006KT M03/M05 A3035 RMK A01 T10331045  RH  091%=      5-min Rain = 0
KBO1 091443Z 31006KT M03/M05 A3035 RMK A01 T10321045  RH  091%=      5-min Rain = 0
KBO1 091444Z 30006KT M03/M04 A3035 RMK A01 T10311044  RH  091%=      5-min Rain = 0
KBO1 091445Z 30006KT M03/M04 A3035 RMK A01 T10301043  RH  091%=      5-min Rain = 0
KBO1 091446Z 30006KT M03/M04 A3035 RMK A01 T10291042  RH  091%=      5-min Rain = 0
KBO1 091447Z 30006KT M03/M04 A3035 RMK A01 T10281041  RH  091%=      5-min Rain = 0
KBO1 091448Z 30006KT M03/M04 A3035 RMK A01 T10271040  RH  091%=      5-min Rain = 0
KBO1 091449Z 30006KT M03/M04 A3035 RMK A01 T10261039  RH  091%=      5-min Rain = 0
KBO1 091450Z 30006KT M03/M04 A3035 RMK A01 T10251038  RH  091%=      5-min Rain = 0
KBO1 091451Z 30006KT M02/M04 A3035 RMK A01 T10241037  RH  091%=      5-min Rain = 0
KBO1 091452Z 31006KT M02/M04 A3035 RMK A01 T10231036  RH  091%=      5-min Rain = 0
KBO1 091453Z 31006KT M02/M04 A3035 RMK A01 T10221035  RH  090%=      5-min Rain = 0
KBO1 091454Z 31006KT M02/M04 A3035 RMK A01 T10211035  RH  090%=      5-min Rain = 0
KBO1 091455Z 31006KT M02/M04 A3035 RMK A01 T10201035  RH  090%=      5-min Rain = 0
KBO1 091456Z 31006KT M02/M03 A3035 RMK A01 T10191034  RH  090%=      5-min Rain = 0
KBO1 091457Z 31005KT M02/M03 A3035 RMK A01 T10181033  RH  090%=      5-min Rain = 0
KBO1 091458Z 31007KT M02/M03 A3035 RMK A01 T10181033  RH  090%=      5-min Rain = 0
KBO1 091459Z 31006KT M02/M03 A3035 RMK A01 T10181034  RH  089%=      5-min Rain = 0
KBO1 091500Z 31006KT M02/M03 A3035 RMK A01 T10181034  RH  089%=      5-min Rain = 0
KBO1 091501Z 32006KT M02/M03 A3035 RMK A01 T10181034  RH  089%=      5-min Rain = 0
KBO1 091502Z 31006KT M02/M03 A3035 RMK A01 T10171034  RH  089%=      5-min Rain = 0
KBO1 091503Z 32006KT M02/M03 A3035 RMK A01 T10161032  RH  089%=      5-min Rain = 0
KBO1 091504Z 32006KT M02/M03 A3035 RMK A01 T10161031  RH  089%=      5-min Rain = 0
KBO1 091505Z 32007KT M02/M03 A3035 RMK A01 T10151030  RH  089%=      5-min Rain = 0
KBO1 091506Z 31006KT M02/M03 A3035 RMK A01 T10151030  RH  089%=      5-min Rain = 0
KBO1 091507Z 31007KT M01/M03 A3035 RMK A01 T10141030  RH  089%=      5-min Rain = 0
KBO1 091508Z 31007KT M02/M03 A3035 RMK A01 T10151031  RH  088%=      5-min Rain = 0
KBO1 091509Z 31006KT M01/M03 A3035 RMK A01 T10141031  RH  088%=      5-min Rain = 0
KBO1 091510Z 31006KT M01/M03 A3035 RMK A01 T10141031  RH  088%=      5-min Rain = 0
KBO1 091511Z 31005KT M01/M03 A3035 RMK A01 T10131031  RH  088%=      5-min Rain = 0
KBO1 091512Z 31007KT M01/M03 A3035 RMK A01 T10131030  RH  088%=      5-min Rain = 0
KBO1 091513Z 31007KT M01/M03 A3035 RMK A01 T10131031  RH  088%=      5-min Rain = 0
KBO1 091514Z 31007KT M01/M03 A3035 RMK A01 T10131031  RH  088%=      5-min Rain = 0
KBO1 091515Z 31006KT M01/M03 A3035 RMK A01 T10131031  RH  087%=      5-min Rain = 0
KBO1 091516Z 31006KT M01/M03 A3035 RMK A01 T10121030  RH  087%=      5-min Rain = 0
KBO1 091517Z 31005KT M01/M03 A3035 RMK A01 T10121030  RH  088%=      5-min Rain = 0
KBO1 091518Z 31005KT M01/M03 A3035 RMK A01 T10111028  RH  088%=      5-min Rain = 0
KBO1 091519Z 32004KT M01/M03 A3036 RMK A01 T10101026  RH  089%=      5-min Rain = 0
KBO1 091520Z 31005KT M01/M02 A3036 RMK A01 T10091024  RH  089%=      5-min Rain = 0
KBO1 091521Z 31005KT M01/M02 A3036 RMK A01 T10081024  RH  089%=      5-min Rain = 0
KBO1 091522Z 32005KT M01/M02 A3036 RMK A01 T10081024  RH  089%=      5-min Rain = 0
KBO1 091523Z 32007KT M01/M02 A3036 RMK A01 T10081024  RH  089%=      5-min Rain = 0
KBO1 091524Z 32006KT M01/M03 A3036 RMK A01 T10081025  RH  088%=      5-min Rain = 0
KBO1 091525Z 32004KT M01/M02 A3036 RMK A01 T10071024  RH  088%=      5-min Rain = 0
KBO1 091526Z 32005KT M01/M02 A3036 RMK A01 T10061021  RH  089%=      5-min Rain = 0
KBO1 091527Z 32005KT M01/M02 A3036 RMK A01 T10051020  RH  089%=      5-min Rain = 0
KBO1 091528Z 31006KT M01/M02 A3036 RMK A01 T10051022  RH  088%=      5-min Rain = 0
KBO1 091529Z 31005KT M01/M02 A3036 RMK A01 T10051023  RH  088%=      5-min Rain = 0
KBO1 091530Z 31006KT M01/M02 A3036 RMK A01 T10051022  RH  088%=      5-min Rain = 0
KBO1 091531Z 31005KT M01/M02 A3036 RMK A01 T10051022  RH  088%=      5-min Rain = 0
KBO1 091532Z 31006KT M00/M02 A3036 RMK A01 T10041021  RH  088%=      5-min Rain = 0
KBO1 091533Z 31006KT M00/M02 A3036 RMK A01 T10041022  RH  088%=      5-min Rain = 0
KBO1 091534Z 32006KT M00/M02 A3036 RMK A01 T10041022  RH  087%=      5-min Rain = 0
KBO1 091535Z 31006KT M00/M02 A3036 RMK A01 T10041023  RH  087%=      5-min Rain = 0
KBO1 091536Z 32005KT M00/M02 A3036 RMK A01 T10041023  RH  087%=      5-min Rain = 0
KBO1 091537Z 32006KT M00/M02 A3036 RMK A01 T10021020  RH  088%=      5-min Rain = 0
KBO1 091538Z 33006KT M00/M02 A3036 RMK A01 T10021019  RH  088%=      5-min Rain = 0
KBO1 091539Z 32005KT M00/M02 A3036 RMK A01 T10011018  RH  088%=      5-min Rain = 0
KBO1 091540Z 31005KT 00/02 A3036 RMK A01 T00000-16  RH  089%=      5-min Rain = 0
KBO1 091541Z 31005KT 00/M02 A3036 RMK A01 T00011015  RH  089%=      5-min Rain = 0
KBO1 091542Z 31004KT 00/M02 A3036 RMK A01 T00021015  RH  088%=      5-min Rain = 0
KBO1 091543Z 31004KT 00/M01 A3036 RMK A01 T00031014  RH  088%=      5-min Rain = 0
KBO1 091544Z 30005KT 00/M01 A3036 RMK A01 T00031014  RH  088%=      5-min Rain = 0
KBO1 091545Z 31004KT 00/M02 A3036 RMK A01 T00031015  RH  088%=      5-min Rain = 0
KBO1 091546Z 31004KT 00/M01 A3036 RMK A01 T00041013  RH  088%=      5-min Rain = 0
KBO1 091547Z 31005KT 01/M01 A3036 RMK A01 T00051012  RH  088%=      5-min Rain = 0
KBO1 091548Z 31005KT 01/M01 A3037 RMK A01 T00051014  RH  087%=      5-min Rain = 0
KBO1 091549Z 31005KT 01/M02 A3037 RMK A01 T00051015  RH  086%=      5-min Rain = 0
KBO1 091550Z 31006KT 01/M01 A3037 RMK A01 T00061012  RH  088%=      5-min Rain = 0
KBO1 091551Z 31005KT 01/M01 A3037 RMK A01 T00071012  RH  087%=      5-min Rain = 0
KBO1 091552Z 32005KT 01/M01 A3037 RMK A01 T00071012  RH  087%=      5-min Rain = 0
KBO1 091553Z 32006KT 01/M01 A3037 RMK A01 T00081011  RH  087%=      5-min Rain = 0
KBO1 091554Z 31005KT 01/M01 A3037 RMK A01 T00091011  RH  087%=      5-min Rain = 0
KBO1 091555Z 31006KT 01/M01 A3037 RMK A01 T00091012  RH  086%=      5-min Rain = 0
KBO1 091556Z 31006KT 01/M01 A3037 RMK A01 T00091012  RH  086%=      5-min Rain = 0
KBO1 091557Z 31007KT 01/M01 A3037 RMK A01 T00091013  RH  085%=      5-min Rain = 0
KBO1 091558Z 30007KT 01/M02 A3037 RMK A01 T00081015  RH  085%=      5-min Rain = 0
KBO1 091559Z 31006KT 01/M01 A3037 RMK A01 T00081014  RH  085%=      5-min Rain = 0
KBO1 091600Z 31006KT 01/M01 A3037 RMK A01 T00091011  RH  087%=      5-min Rain = 0
KBO1 091601Z 31006KT 01/M01 A3037 RMK A01 T00111009  RH  087%=      5-min Rain = 0
KBO1 091602Z 31007KT 01/M01 A3037 RMK A01 T00121009  RH  086%=      5-min Rain = 0
KBO1 091603Z 31007KT 01/M01 A3037 RMK A01 T00111011  RH  085%=      5-min Rain = 0
KBO1 091604Z 31006KT 01/M01 A3037 RMK A01 T00121011  RH  085%=      5-min Rain = 0
KBO1 091605Z 31006KT 01/M01 A3038 RMK A01 T00121010  RH  086%=      5-min Rain = 0
KBO1 091606Z 32006KT 01/M01 A3038 RMK A01 T00141007  RH  086%=      5-min Rain = 0
KBO1 091607Z 31007KT 01/M01 A3038 RMK A01 T00141011  RH  084%=      5-min Rain = 0
KBO1 091608Z 32008KT 01/M01 A3038 RMK A01 T00141009  RH  085%=      5-min Rain = 0
KBO1 091609Z 32006KT 01/M01 A3038 RMK A01 T00141011  RH  083%=      5-min Rain = 0
KBO1 091610Z 32006KT 01/M01 A3038 RMK A01 T00141009  RH  084%=      5-min Rain = 0
KBO1 091611Z 32006KT 02/M01 A3038 RMK A01 T00151008  RH  085%=      5-min Rain = 0
KBO1 091612Z 31006KT 02/M01 A3038 RMK A01 T00161009  RH  084%=      5-min Rain = 0
KBO1 091613Z 31008KT 02/M01 A3038 RMK A01 T00161010  RH  083%=      5-min Rain = 0
KBO1 091614Z 31007KT 02/M01 A3038 RMK A01 T00151013  RH  082%=      5-min Rain = 0
KBO1 091615Z 31008KT 02/M01 A3038 RMK A01 T00151012  RH  082%=      5-min Rain = 0
KBO1 091616Z 32007KT 01/M01 A3038 RMK A01 T00141013  RH  082%=      5-min Rain = 0
KBO1 091617Z 32007KT 01/M01 A3038 RMK A01 T00141014  RH  082%=      5-min Rain = 0
KBO1 091618Z 32007KT 01/M01 A3038 RMK A01 T00141013  RH  082%=      5-min Rain = 0
KBO1 091619Z 32006KT 02/M01 A3038 RMK A01 T00151013  RH  082%=      5-min Rain = 0
KBO1 091620Z 30005KT 02/M01 A3038 RMK A01 T00161009  RH  083%=      5-min Rain = 0
KBO1 091621Z 31008KT 02/M01 A3038 RMK A01 T00181008  RH  083%=      5-min Rain = 0
KBO1 091622Z 32007KT 02/M01 A3038 RMK A01 T00171012  RH  081%=      5-min Rain = 0
KBO1 091623Z 32007KT 02/M01 A3038 RMK A01 T00171013  RH  080%=      5-min Rain = 0
KBO1 091624Z 32006KT 02/M01 A3038 RMK A01 T00171013  RH  081%=      5-min Rain = 0
KBO1 091625Z 32007KT 02/M01 A3038 RMK A01 T00181011  RH  081%=      5-min Rain = 0
KBO1 091626Z 32006KT 02/M01 A3038 RMK A01 T00181012  RH  081%=      5-min Rain = 0
KBO1 091627Z 31006KT 02/M01 A3038 RMK A01 T00181013  RH  080%=      5-min Rain = 0
KBO1 091628Z 33006KT 02/M01 A3038 RMK A01 T00181013  RH  080%=      5-min Rain = 0
KBO1 091629Z 32006KT 02/M01 A3038 RMK A01 T00191011  RH  080%=      5-min Rain = 0
KBO1 091630Z 32007KT 02/M01 A3038 RMK A01 T00191012  RH  080%=      5-min Rain = 0
KBO1 091631Z 32007KT 02/M01 A3038 RMK A01 T00201013  RH  079%=      5-min Rain = 0
KBO1 091632Z 32008KT 02/M01 A3038 RMK A01 T00201013  RH  079%=      5-min Rain = 0
KBO1 091633Z 32007KT 02/M01 A3038 RMK A01 T00201013  RH  078%=      5-min Rain = 0
KBO1 091634Z 33007KT 02/M01 A3038 RMK A01 T00211012  RH  079%=      5-min Rain = 0
KBO1 091635Z 32006KT 02/M02 A3038 RMK A01 T00211015  RH  077%=      5-min Rain = 0
KBO1 091636Z 33007KT 02/M02 A3038 RMK A01 T00211015  RH  077%=      5-min Rain = 0
KBO1 091637Z 33007KT 02/M02 A3038 RMK A01 T00211016  RH  077%=      5-min Rain = 0
KBO1 091638Z 33007KT 02/M02 A3038 RMK A01 T00221015  RH  077%=      5-min Rain = 0
KBO1 091639Z 33007KT 02/M02 A3038 RMK A01 T00221016  RH  076%=      5-min Rain = 0
KBO1 091640Z 32008KT 02/M02 A3038 RMK A01 T00221015  RH  077%=      5-min Rain = 0
KBO1 091641Z 33008KT 02/M02 A3038 RMK A01 T00231015  RH  076%=      5-min Rain = 0
KBO1 091642Z 34007KT 02/M02 A3038 RMK A01 T00231016  RH  075%=      5-min Rain = 0
KBO1 091643Z 33008KT 02/M02 A3038 RMK A01 T00231015  RH  076%=      5-min Rain = 0
KBO1 091644Z 33007KT 02/M02 A3038 RMK A01 T00241017  RH  074%=      5-min Rain = 0
KBO1 091645Z 34006KT 02/M02 A3038 RMK A01 T00241017  RH  074%=      5-min Rain = 0
KBO1 091646Z 32008KT 02/M02 A3038 RMK A01 T00241018  RH  074%=      5-min Rain = 0
KBO1 091647Z 33006KT 02/M02 A3038 RMK A01 T00241021  RH  072%=      5-min Rain = 0
KBO1 091648Z 33005KT 02/M02 A3038 RMK A01 T00231021  RH  072%=      5-min Rain = 0
KBO1 091649Z 33005KT 02/M02 A3038 RMK A01 T00241020  RH  073%=      5-min Rain = 0
KBO1 091650Z 33008KT 03/M02 A3038 RMK A01 T00251017  RH  074%=      5-min Rain = 0
KBO1 091651Z 33007KT 03/M02 A3038 RMK A01 T00261020  RH  072%=      5-min Rain = 0
KBO1 091652Z 34006KT 03/M02 A3038 RMK A01 T00261023  RH  070%=      5-min Rain = 0
KBO1 091653Z 34006KT 03/M02 A3038 RMK A01 T00261022  RH  071%=      5-min Rain = 0
KBO1 091654Z 33007KT 03/M02 A3038 RMK A01 T00261019  RH  072%=      5-min Rain = 0
KBO1 091655Z 35006KT 03/M02 A3038 RMK A01 T00271021  RH  071%=      5-min Rain = 0
KBO1 091656Z 34005KT 03/M02 A3038 RMK A01 T00291019  RH  071%=      5-min Rain = 0
KBO1 091657Z 36006KT 03/M02 A3038 RMK A01 T00311019  RH  070%=      5-min Rain = 0
KBO1 091658Z 35005KT 03/M02 A3038 RMK A01 T00321020  RH  069%=      5-min Rain = 0
KBO1 091659Z 34006KT 03/M02 A3038 RMK A01 T00331021  RH  068%=      5-min Rain = 0
KBO1 091700Z 35007KT 03/M02 A3038 RMK A01 T00321023  RH  067%=      5-min Rain = 0
KBO1 091701Z 35005KT 03/M02 A3038 RMK A01 T00311024  RH  067%=      5-min Rain = 0
KBO1 091702Z 34006KT 03/M03 A3038 RMK A01 T00321026  RH  066%=      5-min Rain = 0
KBO1 091703Z 34006KT 03/M03 A3038 RMK A01 T00311030  RH  064%=      5-min Rain = 0
KBO1 091704Z 35005KT 03/M03 A3038 RMK A01 T00301028  RH  065%=      5-min Rain = 0
KBO1 091705Z 34007KT 03/M03 A3038 RMK A01 T00311028  RH  065%=      5-min Rain = 0
KBO1 091706Z 33005KT 03/M03 A3038 RMK A01 T00321029  RH  064%=      5-min Rain = 0
KBO1 091707Z 34005KT 03/M03 A3038 RMK A01 T00321028  RH  065%=      5-min Rain = 0
KBO1 091708Z 34004KT 03/M03 A3038 RMK A01 T00331030  RH  063%=      5-min Rain = 0
KBO1 091709Z 33004KT 03/M03 A3038 RMK A01 T00311032  RH  063%=      5-min Rain = 0
KBO1 091710Z 33006KT 03/M03 A3038 RMK A01 T00321031  RH  064%=      5-min Rain = 0
KBO1 091711Z 32004KT 03/M03 A3038 RMK A01 T00321032  RH  063%=      5-min Rain = 0
KBO1 091712Z 32005KT 03/M03 A3038 RMK A01 T00331031  RH  063%=      5-min Rain = 0
KBO1 091713Z 33004KT 03/M03 A3038 RMK A01 T00341031  RH  062%=      5-min Rain = 0
KBO1 091714Z 33004KT 04/M03 A3038 RMK A01 T00351032  RH  061%=      5-min Rain = 0
KBO1 091715Z 35004KT 04/M03 A3038 RMK A01 T00361033  RH  061%=      5-min Rain = 0
KBO1 091716Z 34005KT 04/M03 A3038 RMK A01 T00371032  RH  060%=      5-min Rain = 0
KBO1 091717Z 35005KT 04/M03 A3038 RMK A01 T00381033  RH  060%=      5-min Rain = 0
KBO1 091718Z 34004KT 04/M03 A3038 RMK A01 T00381034  RH  059%=      5-min Rain = 0
KBO1 091719Z 35004KT 04/M03 A3038 RMK A01 T00391034  RH  059%=      5-min Rain = 0
KBO1 091720Z 34004KT 04/M03 A3038 RMK A01 T00401033  RH  059%=      5-min Rain = 0
KBO1 091721Z 34001KT 04/M04 A3038 RMK A01 T00401035  RH  058%=      5-min Rain = 0
KBO1 091722Z 34001KT 04/M04 A3038 RMK A01 T00401035  RH  058%=      5-min Rain = 0
KBO1 091723Z 32004KT 04/M04 A3038 RMK A01 T00401036  RH  058%=      5-min Rain = 0
KBO1 091724Z 31004KT 04/M04 A3038 RMK A01 T00401036  RH  057%=      5-min Rain = 0
KBO1 091725Z 35004KT 04/M04 A3038 RMK A01 T00401037  RH  057%=      5-min Rain = 0
KBO1 091726Z 34002KT 04/M04 A3038 RMK A01 T00391038  RH  057%=      5-min Rain = 0
KBO1 091727Z 31004KT 04/M04 A3038 RMK A01 T00411038  RH  057%=      5-min Rain = 0
KBO1 091728Z 32003KT 04/M04 A3038 RMK A01 T00401039  RH  056%=      5-min Rain = 0
KBO1 091729Z 32005KT 04/M04 A3038 RMK A01 T00401037  RH  057%=      5-min Rain = 0
KBO1 091730Z 31004KT 04/M04 A3038 RMK A01 T00411038  RH  056%=      5-min Rain = 0
KBO1 091731Z 32003KT 04/M04 A3038 RMK A01 T00421037  RH  056%=      5-min Rain = 0
KBO1 091732Z 30002KT 04/M04 A3038 RMK A01 T00421038  RH  056%=      5-min Rain = 0
KBO1 091733Z 31003KT 04/M04 A3038 RMK A01 T00431037  RH  056%=      5-min Rain = 0
KBO1 091734Z 30003KT 04/M04 A3038 RMK A01 T00441038  RH  056%=      5-min Rain = 0
KBO1 091735Z 28003KT 05/M04 A3038 RMK A01 T00451038  RH  055%=      5-min Rain = 0
KBO1 091736Z 28002KT 05/M04 A3038 RMK A01 T00451038  RH  055%=      5-min Rain = 0
KBO1 091737Z 35003KT 05/M04 A3038 RMK A01 T00451037  RH  055%=      5-min Rain = 0
KBO1 091738Z 36004KT 05/M04 A3038 RMK A01 T00461037  RH  055%=      5-min Rain = 0
KBO1 091739Z 00004KT 05/M04 A3038 RMK A01 T00471038  RH  054%=      5-min Rain = 0
KBO1 091740Z 00003KT 05/M04 A3038 RMK A01 T00471040  RH  053%=      5-min Rain = 0
KBO1 091741Z 33003KT 05/M04 A3038 RMK A01 T00471038  RH  054%=      5-min Rain = 0
KBO1 091742Z 35001KT 05/M04 A3038 RMK A01 T00491039  RH  053%=      5-min Rain = 0
KBO1 091743Z 33002KT 05/M04 A3038 RMK A01 T00501039  RH  053%=      5-min Rain = 0
KBO1 091744Z 28003KT 05/M04 A3038 RMK A01 T00521036  RH  053%=      5-min Rain = 0
KBO1 091745Z 27002KT 05/M04 A3038 RMK A01 T00531036  RH  053%=      5-min Rain = 0
KBO1 091746Z 25001KT 05/M04 A3038 RMK A01 T00531037  RH  052%=      5-min Rain = 0
KBO1 091747Z 27001KT 05/M04 A3038 RMK A01 T00521037  RH  053%=      5-min Rain = 0
KBO1 091748Z 27002KT 05/M04 A3038 RMK A01 T00521038  RH  052%=      5-min Rain = 0
KBO1 091749Z 30002KT 05/M04 A3038 RMK A01 T00521038  RH  052%=      5-min Rain = 0
KBO1 091750Z 32003KT 05/M04 A3038 RMK A01 T00521038  RH  052%=      5-min Rain = 0
KBO1 091751Z 33004KT 05/M04 A3038 RMK A01 T00521039  RH  052%=      5-min Rain = 0
KBO1 091752Z 33004KT 05/M04 A3038 RMK A01 T00521040  RH  051%=      5-min Rain = 0
KBO1 091753Z 31003KT 05/M04 A3038 RMK A01 T00511041  RH  051%=      5-min Rain = 0
KBO1 091754Z 30002KT 05/M04 A3038 RMK A01 T00511041  RH  052%=      5-min Rain = 0
KBO1 091755Z 01003KT 05/M04 A3038 RMK A01 T00521040  RH  052%=      5-min Rain = 0
KBO1 091756Z 34003KT 05/M04 A3038 RMK A01 T00531042  RH  050%=      5-min Rain = 0
KBO1 091757Z 01005KT 05/M04 A3038 RMK A01 T00521042  RH  051%=      5-min Rain = 0
KBO1 091758Z 00003KT 05/M04 A3038 RMK A01 T00541040  RH  051%=      5-min Rain = 0
KBO1 091759Z 01002KT 05/M04 A3038 RMK A01 T00541042  RH  050%=      5-min Rain = 0
KBO1 091800Z 03002KT 05/M04 A3038 RMK A01 T00541043  RH  050%=      5-min Rain = 0
KBO1 091801Z 06002KT 05/M04 A3038 RMK A01 T00531044  RH  050%=      5-min Rain = 0
KBO1 091802Z 06000KT 05/M04 A3038 RMK A01 T00531044  RH  050%=      5-min Rain = 0
KBO1 091803Z 13000KT 05/M04 A3037 RMK A01 T00531043  RH  050%=      5-min Rain = 0
KBO1 091804Z 13000KT 06/M04 A3037 RMK A01 T00551043  RH  049%=      5-min Rain = 0
KBO1 091805Z 14000KT 06/M04 A3037 RMK A01 T00571041  RH  049%=      5-min Rain = 0
KBO1 091806Z 06002KT 06/M04 A3037 RMK A01 T00601038  RH  049%=      5-min Rain = 0
KBO1 091807Z 04003KT 06/M04 A3037 RMK A01 T00611040  RH  048%=      5-min Rain = 0
KBO1 091808Z 02006KT 06/M04 A3037 RMK A01 T00601040  RH  049%=      5-min Rain = 0
KBO1 091809Z 02005KT 06/M04 A3037 RMK A01 T00591040  RH  049%=      5-min Rain = 0
KBO1 091810Z 02003KT 06/M04 A3037 RMK A01 T00571042  RH  049%=      5-min Rain = 0
KBO1 091811Z 01004KT 06/M04 A3037 RMK A01 T00561042  RH  049%=      5-min Rain = 0
KBO1 091812Z 00003KT 06/M04 A3037 RMK A01 T00561043  RH  049%=      5-min Rain = 0
KBO1 091813Z 35001KT 06/M04 A3037 RMK A01 T00561043  RH  049%=      5-min Rain = 0
KBO1 091814Z 36001KT 06/M04 A3037 RMK A01 T00561043  RH  049%=      5-min Rain = 0
KBO1 091815Z 00004KT 06/M04 A3037 RMK A01 T00571043  RH  049%=      5-min Rain = 0
KBO1 091816Z 02004KT 06/M04 A3037 RMK A01 T00571042  RH  049%=      5-min Rain = 0
KBO1 091817Z 03005KT 06/M04 A3037 RMK A01 T00571042  RH  049%=      5-min Rain = 0
KBO1 091818Z 02004KT 06/M04 A3037 RMK A01 T00561043  RH  049%=      5-min Rain = 0
KBO1 091819Z 05003KT 06/M04 A3036 RMK A01 T00551043  RH  049%=      5-min Rain = 0
KBO1 091820Z 05005KT 06/M04 A3036 RMK A01 T00551042  RH  050%=      5-min Rain = 0
KBO1 091821Z 05004KT 06/M04 A3036 RMK A01 T00561038  RH  051%=      5-min Rain = 0
KBO1 091822Z 08004KT 06/M04 A3036 RMK A01 T00581039  RH  050%=      5-min Rain = 0
KBO1 091823Z 09003KT 06/M04 A3036 RMK A01 T00581041  RH  049%=      5-min Rain = 0
KBO1 091824Z 10003KT 06/M04 A3036 RMK A01 T00581041  RH  049%=      5-min Rain = 0
KBO1 091825Z 07005KT 06/M04 A3036 RMK A01 T00591041  RH  049%=      5-min Rain = 0
KBO1 091826Z 03003KT 06/M04 A3036 RMK A01 T00591043  RH  048%=      5-min Rain = 0
KBO1 091827Z 33002KT 06/M05 A3036 RMK A01 T00581045  RH  048%=      5-min Rain = 0
KBO1 091828Z 08002KT 06/M04 A3036 RMK A01 T00581044  RH  048%=      5-min Rain = 0
KBO1 091829Z 07001KT 06/M04 A3035 RMK A01 T00581043  RH  048%=      5-min Rain = 0
KBO1 091830Z 03003KT 06/M04 A3035 RMK A01 T00601042  RH  048%=      5-min Rain = 0
KBO1 091831Z 02005KT 06/M04 A3035 RMK A01 T00631039  RH  048%=      5-min Rain = 0
KBO1 091832Z 00003KT 06/M04 A3035 RMK A01 T00641041  RH  047%=      5-min Rain = 0
KBO1 091833Z 04005KT 06/M04 A3035 RMK A01 T00641039  RH  047%=      5-min Rain = 0
KBO1 091834Z 04004KT 07/M04 A3035 RMK A01 T00651039  RH  048%=      5-min Rain = 0
KBO1 091835Z 03005KT 07/M04 A3035 RMK A01 T00651039  RH  047%=      5-min Rain = 0
KBO1 091836Z 04004KT 06/M04 A3035 RMK A01 T00631042  RH  047%=      5-min Rain = 0
KBO1 091837Z 04002KT 06/M04 A3035 RMK A01 T00601042  RH  048%=      5-min Rain = 0
KBO1 091838Z 34001KT 06/M04 A3035 RMK A01 T00601042  RH  048%=      5-min Rain = 0
KBO1 091839Z 32002KT 06/M04 A3035 RMK A01 T00601043  RH  048%=      5-min Rain = 0
KBO1 091840Z 31002KT 06/M04 A3035 RMK A01 T00601044  RH  047%=      5-min Rain = 0
KBO1 091841Z 30001KT 06/M04 A3035 RMK A01 T00601044  RH  047%=      5-min Rain = 0
KBO1 091842Z 31000KT 06/M04 A3035 RMK A01 T00601044  RH  047%=      5-min Rain = 0
KBO1 091843Z 16000KT 06/M04 A3035 RMK A01 T00601043  RH  048%=      5-min Rain = 0
KBO1 091844Z 11001KT 06/M04 A3035 RMK A01 T00611043  RH  048%=      5-min Rain = 0
KBO1 091845Z 03003KT 06/M04 A3035 RMK A01 T00631041  RH  047%=      5-min Rain = 0
KBO1 091846Z 02002KT 06/M04 A3035 RMK A01 T00631042  RH  047%=      5-min Rain = 0
KBO1 091847Z 03004KT 06/M04 A3035 RMK A01 T00631042  RH  047%=      5-min Rain = 0
KBO1 091848Z 02001KT 06/M04 A3035 RMK A01 T00631042  RH  047%=      5-min Rain = 0
KBO1 091849Z 07001KT 06/M04 A3035 RMK A01 T00641042  RH  047%=      5-min Rain = 0
KBO1 091850Z 11003KT 06/M04 A3035 RMK A01 T00641042  RH  047%=      5-min Rain = 0
KBO1 091851Z 13003KT 06/M04 A3035 RMK A01 T00641042  RH  047%=      5-min Rain = 0
KBO1 091852Z 10004KT 07/M04 A3035 RMK A01 T00651042  RH  046%=      5-min Rain = 0
KBO1 091853Z 09003KT 07/M04 A3035 RMK A01 T00671040  RH  046%=      5-min Rain = 0
KBO1 091854Z 08002KT 07/M04 A3035 RMK A01 T00671041  RH  046%=      5-min Rain = 0
KBO1 091855Z 06002KT 07/M04 A3035 RMK A01 T00661042  RH  046%=      5-min Rain = 0
KBO1 091856Z 08003KT 07/M04 A3035 RMK A01 T00651041  RH  046%=      5-min Rain = 0
KBO1 091857Z 11002KT 07/M04 A3035 RMK A01 T00651042  RH  047%=      5-min Rain = 0
KBO1 091858Z 12001KT 07/M04 A3035 RMK A01 T00651041  RH  047%=      5-min Rain = 0
KBO1 091859Z 06001KT 07/M04 A3035 RMK A01 T00671040  RH  046%=      5-min Rain = 0
KBO1 091900Z 03002KT 07/M04 A3035 RMK A01 T00681040  RH  046%=      5-min Rain = 0
KBO1 091901Z 03006KT 07/M04 A3035 RMK A01 T00691038  RH  046%=      5-min Rain = 0
KBO1 091902Z 03004KT 07/M04 A3035 RMK A01 T00701039  RH  046%=      5-min Rain = 0
KBO1 091903Z 03003KT 07/M04 A3035 RMK A01 T00681040  RH  046%=      5-min Rain = 0
KBO1 091904Z 02001KT 07/M04 A3034 RMK A01 T00661042  RH  046%=      5-min Rain = 0
KBO1 091905Z 06003KT 07/M04 A3034 RMK A01 T00671040  RH  047%=      5-min Rain = 0
KBO1 091906Z 05005KT 07/M04 A3034 RMK A01 T00691038  RH  047%=      5-min Rain = 0
KBO1 091907Z 06004KT 07/M04 A3034 RMK A01 T00701037  RH  046%=      5-min Rain = 0
KBO1 091908Z 07003KT 07/M04 A3034 RMK A01 T00691040  RH  046%=      5-min Rain = 0
KBO1 091909Z 06002KT 07/M04 A3034 RMK A01 T00681039  RH  046%=      5-min Rain = 0
KBO1 091910Z 05003KT 07/M04 A3034 RMK A01 T00691037  RH  047%=      5-min Rain = 0
KBO1 091911Z 04004KT 07/M04 A3034 RMK A01 T00701038  RH  046%=      5-min Rain = 0
KBO1 091912Z 05003KT 07/M04 A3034 RMK A01 T00691039  RH  046%=      5-min Rain = 0
KBO1 091913Z 01001KT 07/M04 A3034 RMK A01 T00691038  RH  046%=      5-min Rain = 0
KBO1 091914Z 00000KT 07/M04 A3034 RMK A01 T00691039  RH  046%=      5-min Rain = 0
KBO1 091915Z 07001KT 07/M04 A3034 RMK A01 T00711037  RH  046%=      5-min Rain = 0
KBO1 091916Z 34003KT 07/M04 A3034 RMK A01 T00731036  RH  046%=      5-min Rain = 0
KBO1 091917Z 03004KT 08/M04 A3034 RMK A01 T00751036  RH  045%=      5-min Rain = 0
KBO1 091918Z 04003KT 08/M04 A3034 RMK A01 T00751037  RH  045%=      5-min Rain = 0
KBO1 091919Z 04002KT 07/M04 A3034 RMK A01 T00731040  RH  045%=      5-min Rain = 0
KBO1 091920Z 03002KT 07/M04 A3034 RMK A01 T00721040  RH  045%=      5-min Rain = 0
KBO1 091921Z 35001KT 07/M04 A3034 RMK A01 T00711039  RH  045%=      5-min Rain = 0
KBO1 091922Z 09001KT 07/M04 A3034 RMK A01 T00721037  RH  046%=      5-min Rain = 0
KBO1 091923Z 05003KT 07/M04 A3034 RMK A01 T00741037  RH  045%=      5-min Rain = 0
KBO1 091924Z 02005KT 07/M04 A3034 RMK A01 T00741037  RH  045%=      5-min Rain = 0
KBO1 091925Z 01006KT 08/M04 A3034 RMK A01 T00761036  RH  045%=      5-min Rain = 0
KBO1 091926Z 36006KT 08/M04 A3034 RMK A01 T00761038  RH  044%=      5-min Rain = 0
KBO1 091927Z 00005KT 08/M04 A3034 RMK A01 T00751040  RH  044%=      5-min Rain = 0
KBO1 091928Z 02005KT 08/M04 A3034 RMK A01 T00751038  RH  044%=      5-min Rain = 0
KBO1 091929Z 00005KT 08/M04 A3034 RMK A01 T00751038  RH  045%=      5-min Rain = 0
KBO1 091930Z 01003KT 08/M04 A3034 RMK A01 T00751039  RH  044%=      5-min Rain = 0
KBO1 091931Z 01002KT 07/M04 A3034 RMK A01 T00741039  RH  044%=      5-min Rain = 0
KBO1 091932Z 03003KT 08/M04 A3034 RMK A01 T00761038  RH  044%=      5-min Rain = 0
KBO1 091933Z 03001KT 08/M04 A3034 RMK A01 T00761040  RH  044%=      5-min Rain = 0
KBO1 091934Z 04003KT 08/M04 A3034 RMK A01 T00761039  RH  044%=      5-min Rain = 0
KBO1 091935Z 35002KT 08/M04 A3034 RMK A01 T00751041  RH  044%=      5-min Rain = 0
KBO1 091936Z 34005KT 07/M04 A3034 RMK A01 T00741040  RH  044%=      5-min Rain = 0
KBO1 091937Z 35005KT 08/M04 A3034 RMK A01 T00761039  RH  044%=      5-min Rain = 0
KBO1 091938Z 33002KT 08/M04 A3034 RMK A01 T00771041  RH  043%=      5-min Rain = 0
KBO1 091939Z 33003KT 08/M04 A3034 RMK A01 T00761041  RH  043%=      5-min Rain = 0
KBO1 091940Z 35004KT 08/M04 A3034 RMK A01 T00761041  RH  043%=      5-min Rain = 0
KBO1 091941Z 30002KT 08/M04 A3034 RMK A01 T00771040  RH  043%=      5-min Rain = 0
KBO1 091942Z 35004KT 08/M04 A3034 RMK A01 T00781041  RH  043%=      5-min Rain = 0
KBO1 091943Z 04004KT 08/M04 A3034 RMK A01 T00781041  RH  043%=      5-min Rain = 0
KBO1 091944Z 01006KT 08/M04 A3034 RMK A01 T00771040  RH  043%=      5-min Rain = 0
KBO1 091945Z 35005KT 08/M04 A3034 RMK A01 T00781040  RH  043%=      5-min Rain = 0
KBO1 091946Z 35007KT 08/M04 A3034 RMK A01 T00791040  RH  043%=      5-min Rain = 0
KBO1 091947Z 00008KT 08/M04 A3034 RMK A01 T00781042  RH  042%=      5-min Rain = 0
KBO1 091948Z 00007KT 08/M04 A3034 RMK A01 T00751043  RH  043%=      5-min Rain = 0
KBO1 091949Z 00006KT 08/M04 A3034 RMK A01 T00761041  RH  043%=      5-min Rain = 0
KBO1 091950Z 36004KT 08/M04 A3034 RMK A01 T00761043  RH  043%=      5-min Rain = 0
KBO1 091951Z 03003KT 08/M04 A3034 RMK A01 T00751044  RH  042%=      5-min Rain = 0
KBO1 091952Z 03004KT 07/M04 A3034 RMK A01 T00741044  RH  043%=      5-min Rain = 0
KBO1 091953Z 08003KT 07/M04 A3034 RMK A01 T00741044  RH  043%=      5-min Rain = 0
KBO1 091954Z 33004KT 07/M04 A3034 RMK A01 T00731044  RH  043%=      5-min Rain = 0
KBO1 091955Z 33005KT 07/M05 A3034 RMK A01 T00741045  RH  043%=      5-min Rain = 0
KBO1 091956Z 34005KT 07/M05 A3034 RMK A01 T00741045  RH  042%=      5-min Rain = 0
KBO1 091957Z 00003KT 08/M04 A3034 RMK A01 T00761043  RH  043%=      5-min Rain = 0
KBO1 091958Z 01001KT 08/M04 A3033 RMK A01 T00761044  RH  042%=      5-min Rain = 0
KBO1 091959Z 29003KT 08/M04 A3033 RMK A01 T00761044  RH  042%=      5-min Rain = 0
KBO1 092000Z 31006KT 08/M04 A3033 RMK A01 T00781042  RH  042%=      5-min Rain = 0
KBO1 092001Z 29005KT 08/M04 A3033 RMK A01 T00791043  RH  042%=      5-min Rain = 0
KBO1 092002Z 30004KT 08/M04 A3033 RMK A01 T00771043  RH  042%=      5-min Rain = 0
KBO1 092003Z 32007KT 08/M04 A3033 RMK A01 T00791040  RH  043%=      5-min Rain = 0
KBO1 092004Z 32005KT 08/M04 A3033 RMK A01 T00801041  RH  042%=      5-min Rain = 0
KBO1 092005Z 35006KT 08/M04 A3033 RMK A01 T00791041  RH  042%=      5-min Rain = 0
KBO1 092006Z 35007KT 08/M04 A3033 RMK A01 T00821038  RH  043%=      5-min Rain = 0
KBO1 092007Z 00005KT 08/M04 A3033 RMK A01 T00821040  RH  042%=      5-min Rain = 0
KBO1 092008Z 34007KT 08/M04 A3033 RMK A01 T00821040  RH  042%=      5-min Rain = 0
KBO1 092009Z 34006KT 08/M04 A3033 RMK A01 T00811042  RH  041%=      5-min Rain = 0
KBO1 092010Z 02002KT 08/M04 A3033 RMK A01 T00801043  RH  042%=      5-min Rain = 0
KBO1 092011Z 01002KT 08/M04 A3033 RMK A01 T00781042  RH  042%=      5-min Rain = 0
KBO1 092012Z 34007KT 08/M04 A3033 RMK A01 T00791042  RH  042%=      5-min Rain = 0
KBO1 092013Z 35006KT 08/M04 A3033 RMK A01 T00781044  RH  042%=      5-min Rain = 0
KBO1 092014Z 01005KT 08/M05 A3033 RMK A01 T00771045  RH  042%=      5-min Rain = 0
KBO1 092015Z 02002KT 07/M05 A3033 RMK A01 T00741047  RH  042%=      5-min Rain = 0
KBO1 092016Z 05002KT 07/M05 A3033 RMK A01 T00731046  RH  043%=      5-min Rain = 0
KBO1 092017Z 06001KT 08/M04 A3033 RMK A01 T00751043  RH  043%=      5-min Rain = 0
KBO1 092018Z 33004KT 08/M04 A3033 RMK A01 T00771042  RH  043%=      5-min Rain = 0
KBO1 092019Z 31004KT 08/M04 A3033 RMK A01 T00771043  RH  042%=      5-min Rain = 0
KBO1 092020Z 29005KT 08/M04 A3033 RMK A01 T00771044  RH  042%=      5-min Rain = 0
KBO1 092021Z 29004KT 08/M04 A3033 RMK A01 T00771043  RH  042%=      5-min Rain = 0
KBO1 092022Z 27003KT 08/M04 A3033 RMK A01 T00771043  RH  042%=      5-min Rain = 0
KBO1 092023Z 25002KT 08/M04 A3032 RMK A01 T00771043  RH  042%=      5-min Rain = 0
KBO1 092024Z 26001KT 08/M04 A3032 RMK A01 T00781043  RH  042%=      5-min Rain = 0
KBO1 092025Z 28002KT 08/M04 A3032 RMK A01 T00791043  RH  042%=      5-min Rain = 0
KBO1 092026Z 33003KT 08/M04 A3032 RMK A01 T00811042  RH  041%=      5-min Rain = 0
KBO1 092027Z 34004KT 08/M04 A3032 RMK A01 T00841040  RH  041%=      5-min Rain = 0
KBO1 092028Z 34006KT 09/M04 A3032 RMK A01 T00861041  RH  040%=      5-min Rain = 0
KBO1 092029Z 33002KT 08/M05 A3032 RMK A01 T00831045  RH  040%=      5-min Rain = 0
KBO1 092030Z 03002KT 08/M04 A3032 RMK A01 T00821044  RH  041%=      5-min Rain = 0
KBO1 092031Z 06002KT 08/M04 A3032 RMK A01 T00811043  RH  041%=      5-min Rain = 0
KBO1 092032Z 07002KT 08/M04 A3032 RMK A01 T00821043  RH  041%=      5-min Rain = 0
KBO1 092033Z 08002KT 08/M04 A3032 RMK A01 T00831043  RH  041%=      5-min Rain = 0
KBO1 092034Z 05002KT 08/M04 A3032 RMK A01 T00841043  RH  040%=      5-min Rain = 0
KBO1 092035Z 00000KT 08/M04 A3032 RMK A01 T00841044  RH  040%=      5-min Rain = 0
KBO1 092036Z 25002KT 08/M04 A3032 RMK A01 T00841044  RH  040%=      5-min Rain = 0
KBO1 092037Z 26003KT 08/M04 A3032 RMK A01 T00841044  RH  040%=      5-min Rain = 0
KBO1 092038Z 26002KT 08/M05 A3032 RMK A01 T00841045  RH  040%=      5-min Rain = 0
KBO1 092039Z 30002KT 08/M05 A3032 RMK A01 T00841045  RH  040%=      5-min Rain = 0
KBO1 092040Z 28001KT 08/M05 A3032 RMK A01 T00831046  RH  040%=      5-min Rain = 0
KBO1 092041Z 30002KT 08/M05 A3032 RMK A01 T00831046  RH  040%=      5-min Rain = 0
KBO1 092042Z 29002KT 08/M05 A3032 RMK A01 T00831046  RH  040%=      5-min Rain = 0
KBO1 092043Z 31004KT 08/M05 A3032 RMK A01 T00821047  RH  040%=      5-min Rain = 0
KBO1 092044Z 30003KT 08/M05 A3032 RMK A01 T00821048  RH  039%=      5-min Rain = 0
KBO1 092045Z 31004KT 08/M05 A3032 RMK A01 T00831048  RH  039%=      5-min Rain = 0
KBO1 092046Z 29004KT 09/M05 A3032 RMK A01 T00851046  RH  039%=      5-min Rain = 0
KBO1 092047Z 27005KT 09/M05 A3032 RMK A01 T00851048  RH  039%=      5-min Rain = 0
KBO1 092048Z 28004KT 08/M05 A3032 RMK A01 T00811050  RH  039%=      5-min Rain = 0
KBO1 092049Z 30003KT 08/M05 A3032 RMK A01 T00801050  RH  039%=      5-min Rain = 0
KBO1 092050Z 30002KT 08/M05 A3032 RMK A01 T00791050  RH  039%=      5-min Rain = 0
KBO1 092051Z 28002KT 08/M05 A3032 RMK A01 T00801050  RH  039%=      5-min Rain = 0
KBO1 092052Z 27003KT 08/M05 A3032 RMK A01 T00811051  RH  039%=      5-min Rain = 0
KBO1 092053Z 31002KT 08/M05 A3032 RMK A01 T00811051  RH  039%=      5-min Rain = 0
KBO1 092054Z 31000KT 08/M05 A3032 RMK A01 T00811051  RH  039%=      5-min Rain = 0
KBO1 092055Z 14001KT 08/M05 A3032 RMK A01 T00811051  RH  039%=      5-min Rain = 0
KBO1 092056Z 11000KT 08/M05 A3032 RMK A01 T00831050  RH  039%=      5-min Rain = 0
KBO1 092057Z 28000KT 08/M05 A3032 RMK A01 T00841050  RH  038%=      5-min Rain = 0
KBO1 092058Z 16001KT 09/M05 A3032 RMK A01 T00861049  RH  038%=      5-min Rain = 0
KBO1 092059Z 16001KT 09/M05 A3032 RMK A01 T00871049  RH  038%=      5-min Rain = 0
KBO1 092100Z 14001KT 09/M05 A3032 RMK A01 T00901049  RH  037%=      5-min Rain = 0
KBO1 092101Z 08001KT 09/M05 A3032 RMK A01 T00911050  RH  037%=      5-min Rain = 0
KBO1 092102Z 02001KT 09/M05 A3032 RMK A01 T00901052  RH  036%=      5-min Rain = 0
KBO1 092103Z 01006KT 09/M05 A3032 RMK A01 T00891051  RH  037%=      5-min Rain = 0
KBO1 092104Z 03004KT 09/M05 A3032 RMK A01 T00861054  RH  037%=      5-min Rain = 0
KBO1 092105Z 01002KT 08/M06 A3032 RMK A01 T00831056  RH  037%=      5-min Rain = 0
KBO1 092106Z 05002KT 08/M06 A3032 RMK A01 T00821055  RH  038%=      5-min Rain = 0
KBO1 092107Z 03003KT 08/M05 A3032 RMK A01 T00821052  RH  038%=      5-min Rain = 0
KBO1 092108Z 04004KT 08/M05 A3032 RMK A01 T00841051  RH  038%=      5-min Rain = 0
KBO1 092109Z 03005KT 09/M05 A3032 RMK A01 T00861050  RH  038%=      5-min Rain = 0
KBO1 092110Z 03002KT 09/M05 A3032 RMK A01 T00851052  RH  038%=      5-min Rain = 0
KBO1 092111Z 05003KT 08/M05 A3032 RMK A01 T00841052  RH  038%=      5-min Rain = 0
KBO1 092112Z 07002KT 08/M05 A3032 RMK A01 T00841053  RH  037%=      5-min Rain = 0
KBO1 092113Z 07001KT 09/M05 A3032 RMK A01 T00851051  RH  038%=      5-min Rain = 0
KBO1 092114Z 06002KT 09/M05 A3032 RMK A01 T00861051  RH  037%=      5-min Rain = 0
KBO1 092115Z 06001KT 09/M05 A3032 RMK A01 T00861052  RH  037%=      5-min Rain = 0
KBO1 092116Z 03001KT 09/M05 A3032 RMK A01 T00861052  RH  037%=      5-min Rain = 0
KBO1 092117Z 03003KT 09/M05 A3032 RMK A01 T00861052  RH  037%=      5-min Rain = 0
KBO1 092118Z 01002KT 09/M05 A3032 RMK A01 T00871050  RH  038%=      5-min Rain = 0
KBO1 092119Z 05002KT 09/M05 A3032 RMK A01 T00881051  RH  037%=      5-min Rain = 0
KBO1 092120Z 05001KT 09/M05 A3032 RMK A01 T00871053  RH  037%=      5-min Rain = 0
KBO1 092121Z 04001KT 09/M05 A3032 RMK A01 T00861053  RH  037%=      5-min Rain = 0
KBO1 092122Z 35001KT 09/M05 A3032 RMK A01 T00861052  RH  037%=      5-min Rain = 0
KBO1 092123Z 33002KT 09/M05 A3032 RMK A01 T00871051  RH  037%=      5-min Rain = 0
KBO1 092124Z 32005KT 09/M05 A3032 RMK A01 T00871051  RH  037%=      5-min Rain = 0
KBO1 092125Z 31004KT 09/M05 A3032 RMK A01 T00871051  RH  037%=      5-min Rain = 0
KBO1 092126Z 31004KT 09/M05 A3032 RMK A01 T00871051  RH  037%=      5-min Rain = 0
KBO1 092127Z 33004KT 09/M05 A3032 RMK A01 T00881050  RH  037%=      5-min Rain = 0
KBO1 092128Z 34004KT 09/M05 A3032 RMK A01 T00891051  RH  037%=      5-min Rain = 0
KBO1 092129Z 33002KT 09/M05 A3032 RMK A01 T00871052  RH  037%=      5-min Rain = 0
KBO1 092130Z 26003KT 09/M05 A3032 RMK A01 T00871051  RH  037%=      5-min Rain = 0
KBO1 092131Z 25005KT 09/M05 A3032 RMK A01 T00881051  RH  037%=      5-min Rain = 0
KBO1 092132Z 27003KT 09/M05 A3032 RMK A01 T00871052  RH  037%=      5-min Rain = 0
KBO1 092133Z 28003KT 09/M05 A3032 RMK A01 T00861052  RH  037%=      5-min Rain = 0
KBO1 092134Z 29002KT 09/M05 A3032 RMK A01 T00861050  RH  038%=      5-min Rain = 0
KBO1 092135Z 27002KT 09/M05 A3032 RMK A01 T00871050  RH  037%=      5-min Rain = 0
KBO1 092136Z 24001KT 09/M05 A3032 RMK A01 T00881050  RH  037%=      5-min Rain = 0
KBO1 092137Z 22001KT 09/M05 A3032 RMK A01 T00891051  RH  037%=      5-min Rain = 0
KBO1 092138Z 24002KT 09/M05 A3032 RMK A01 T00901050  RH  037%=      5-min Rain = 0
KBO1 092139Z 23001KT 09/M05 A3032 RMK A01 T00911051  RH  036%=      5-min Rain = 0
KBO1 092140Z 30001KT 09/M05 A3032 RMK A01 T00901051  RH  036%=      5-min Rain = 0
KBO1 092141Z 22000KT 09/M05 A3032 RMK A01 T00921049  RH  037%=      5-min Rain = 0
KBO1 092142Z 14001KT 10/M05 A3032 RMK A01 T00951047  RH  036%=      5-min Rain = 0
KBO1 092143Z 07002KT 10/M05 A3032 RMK A01 T00961050  RH  035%=      5-min Rain = 0
KBO1 092144Z 06002KT 10/M06 A3032 RMK A01 T00951055  RH  034%=      5-min Rain = 0
KBO1 092145Z 07002KT 09/M06 A3032 RMK A01 T00921056  RH  035%=      5-min Rain = 0
KBO1 092146Z 04002KT 09/M05 A3032 RMK A01 T00901054  RH  036%=      5-min Rain = 0
KBO1 092147Z 04004KT 09/M05 A3032 RMK A01 T00911053  RH  036%=      5-min Rain = 0
KBO1 092148Z 03006KT 09/M05 A3033 RMK A01 T00901053  RH  036%=      5-min Rain = 0
KBO1 092149Z 03004KT 09/M05 A3033 RMK A01 T00891054  RH  036%=      5-min Rain = 0
KBO1 092150Z 02004KT 09/M05 A3033 RMK A01 T00871054  RH  036%=      5-min Rain = 0
KBO1 092151Z 03005KT 09/M06 A3033 RMK A01 T00871055  RH  036%=      5-min Rain = 0
KBO1 092152Z 03005KT 09/M06 A3033 RMK A01 T00861056  RH  036%=      5-min Rain = 0
KBO1 092153Z 02006KT 09/M06 A3033 RMK A01 T00861056  RH  036%=      5-min Rain = 0
KBO1 092154Z 02004KT 09/M06 A3033 RMK A01 T00861056  RH  036%=      5-min Rain = 0
KBO1 092155Z 04006KT 09/M06 A3033 RMK A01 T00851057  RH  036%=      5-min Rain = 0
KBO1 092156Z 04005KT 09/M06 A3033 RMK A01 T00851059  RH  036%=      5-min Rain = 0
KBO1 092157Z 03004KT 08/M06 A3033 RMK A01 T00841061  RH  035%=      5-min Rain = 0
KBO1 092158Z 03003KT 08/M06 A3033 RMK A01 T00841063  RH  035%=      5-min Rain = 0
KBO1 092159Z 03001KT 08/M07 A3033 RMK A01 T00841065  RH  034%=      5-min Rain = 0
KBO1 092200Z 02001KT 08/M07 A3032 RMK A01 T00841065  RH  034%=      5-min Rain = 0
KBO1 092201Z 07000KT 08/M07 A3032 RMK A01 T00841066  RH  034%=      5-min Rain = 0
KBO1 092202Z 07002KT 08/M07 A3032 RMK A01 T00841066  RH  034%=      5-min Rain = 0
KBO1 092203Z 07003KT 08/M07 A3032 RMK A01 T00841068  RH  033%=      5-min Rain = 0
KBO1 092204Z 05004KT 08/M07 A3032 RMK A01 T00821069  RH  033%=      5-min Rain = 0
KBO1 092205Z 05005KT 08/M07 A3032 RMK A01 T00821069  RH  034%=      5-min Rain = 0
KBO1 092206Z 07004KT 08/M07 A3032 RMK A01 T00821069  RH  034%=      5-min Rain = 0
KBO1 092207Z 04003KT 08/M07 A3032 RMK A01 T00821068  RH  034%=      5-min Rain = 0
KBO1 092208Z 03002KT 08/M07 A3032 RMK A01 T00831069  RH  034%=      5-min Rain = 0
KBO1 092209Z 04002KT 08/M07 A3032 RMK A01 T00831069  RH  033%=      5-min Rain = 0
KBO1 092210Z 04001KT 08/M07 A3032 RMK A01 T00841067  RH  034%=      5-min Rain = 0
KBO1 092211Z 09001KT 09/M07 A3032 RMK A01 T00851068  RH  033%=      5-min Rain = 0
KBO1 092212Z 06003KT 09/M07 A3032 RMK A01 T00861068  RH  033%=      5-min Rain = 0
KBO1 092213Z 06003KT 09/M07 A3032 RMK A01 T00871068  RH  033%=      5-min Rain = 0
KBO1 092214Z 06005KT 09/M07 A3032 RMK A01 T00871068  RH  033%=      5-min Rain = 0
KBO1 092215Z 07005KT 09/M07 A3032 RMK A01 T00861066  RH  033%=      5-min Rain = 0
KBO1 092216Z 07005KT 09/M07 A3032 RMK A01 T00861066  RH  033%=      5-min Rain = 0
KBO1 092217Z 07004KT 09/M07 A3032 RMK A01 T00861067  RH  033%=      5-min Rain = 0
KBO1 092218Z 05005KT 09/M07 A3032 RMK A01 T00861066  RH  034%=      5-min Rain = 0
KBO1 092219Z 05005KT 09/M07 A3032 RMK A01 T00861066  RH  033%=      5-min Rain = 0
KBO1 092220Z 05004KT 09/M07 A3032 RMK A01 T00851068  RH  033%=      5-min Rain = 0
KBO1 092221Z 07003KT 08/M07 A3032 RMK A01 T00841069  RH  033%=      5-min Rain = 0
KBO1 092222Z 07004KT 08/M07 A3032 RMK A01 T00841070  RH  033%=      5-min Rain = 0
KBO1 092223Z 05003KT 08/M07 A3032 RMK A01 T00841068  RH  033%=      5-min Rain = 0
KBO1 092224Z 04002KT 08/M07 A3032 RMK A01 T00841069  RH  033%=      5-min Rain = 0
KBO1 092225Z 08001KT 08/M07 A3032 RMK A01 T00841070  RH  033%=      5-min Rain = 0
KBO1 092226Z 06002KT 08/M07 A3032 RMK A01 T00841068  RH  033%=      5-min Rain = 0
KBO1 092227Z 07002KT 08/M07 A3032 RMK A01 T00841068  RH  033%=      5-min Rain = 0
KBO1 092228Z 09001KT 09/M07 A3032 RMK A01 T00851069  RH  033%=      5-min Rain = 0
KBO1 092229Z 11002KT 08/M07 A3032 RMK A01 T00841070  RH  033%=      5-min Rain = 0
KBO1 092230Z 11001KT 09/M07 A3032 RMK A01 T00851069  RH  033%=      5-min Rain = 0
KBO1 092231Z 11002KT 09/M07 A3032 RMK A01 T00851068  RH  033%=      5-min Rain = 0
KBO1 092232Z 12002KT 09/M07 A3032 RMK A01 T00861068  RH  033%=      5-min Rain = 0
KBO1 092233Z 11002KT 09/M07 A3032 RMK A01 T00851070  RH  033%=      5-min Rain = 0
KBO1 092234Z 12001KT 09/M07 A3032 RMK A01 T00851070  RH  033%=      5-min Rain = 0
KBO1 092235Z 13001KT 09/M07 A3032 RMK A01 T00861068  RH  033%=      5-min Rain = 0
KBO1 092236Z 13000KT 09/M07 A3032 RMK A01 T00871069  RH  032%=      5-min Rain = 0
KBO1 092237Z 08000KT 09/M07 A3032 RMK A01 T00871070  RH  032%=      5-min Rain = 0
KBO1 092238Z 05001KT 09/M07 A3032 RMK A01 T00871069  RH  032%=      5-min Rain = 0
KBO1 092239Z 02003KT 09/M07 A3032 RMK A01 T00871071  RH  032%=      5-min Rain = 0
KBO1 092240Z 04003KT 09/M07 A3032 RMK A01 T00861073  RH  032%=      5-min Rain = 0
KBO1 092241Z 02003KT 09/M07 A3032 RMK A01 T00851074  RH  032%=      5-min Rain = 0
KBO1 092242Z 01003KT 09/M08 A3032 RMK A01 T00851076  RH  031%=      5-min Rain = 0
KBO1 092243Z 01002KT 08/M08 A3032 RMK A01 T00841078  RH  031%=      5-min Rain = 0
KBO1 092244Z 01003KT 08/M08 A3032 RMK A01 T00831078  RH  031%=      5-min Rain = 0
KBO1 092245Z 01002KT 08/M08 A3032 RMK A01 T00831078  RH  031%=      5-min Rain = 0
KBO1 092246Z 01002KT 08/M08 A3032 RMK A01 T00831078  RH  031%=      5-min Rain = 0
KBO1 092247Z 01001KT 08/M08 A3032 RMK A01 T00831078  RH  031%=      5-min Rain = 0
KBO1 092248Z 01001KT 08/M08 A3032 RMK A01 T00831078  RH  031%=      5-min Rain = 0
KBO1 092249Z 01001KT 08/M08 A3032 RMK A01 T00831080  RH  031%=      5-min Rain = 0
KBO1 092250Z 00002KT 08/M08 A3032 RMK A01 T00831080  RH  031%=      5-min Rain = 0
KBO1 092251Z 00002KT 08/M08 A3032 RMK A01 T00831080  RH  031%=      5-min Rain = 0
KBO1 092252Z 01002KT 08/M08 A3032 RMK A01 T00821080  RH  031%=      5-min Rain = 0
KBO1 092253Z 01002KT 08/M08 A3032 RMK A01 T00821080  RH  031%=      5-min Rain = 0
KBO1 092254Z 01002KT 08/M08 A3032 RMK A01 T00821081  RH  031%=      5-min Rain = 0
KBO1 092255Z 36002KT 08/M08 A3032 RMK A01 T00821080  RH  031%=      5-min Rain = 0
KBO1 092256Z 01002KT 08/M08 A3032 RMK A01 T00811081  RH  031%=      5-min Rain = 0
KBO1 092257Z 03002KT 08/M08 A3032 RMK A01 T00811081  RH  031%=      5-min Rain = 0
KBO1 092258Z 03001KT 08/M08 A3032 RMK A01 T00811080  RH  031%=      5-min Rain = 0
KBO1 092259Z 02001KT 08/M08 A3032 RMK A01 T00811080  RH  031%=      5-min Rain = 0
KBO1 092300Z 02001KT 08/M08 A3032 RMK A01 T00811080  RH  031%=      5-min Rain = 0
KBO1 092301Z 02000KT 08/M08 A3032 RMK A01 T00811079  RH  031%=      5-min Rain = 0
KBO1 092302Z 01000KT 08/M08 A3032 RMK A01 T00811079  RH  031%=      5-min Rain = 0
KBO1 092303Z 01001KT 08/M08 A3032 RMK A01 T00811080  RH  031%=      5-min Rain = 0
KBO1 092304Z 03001KT 08/M08 A3032 RMK A01 T00811080  RH  031%=      5-min Rain = 0
KBO1 092305Z 03001KT 08/M08 A3032 RMK A01 T00811080  RH  031%=      5-min Rain = 0
KBO1 092306Z 04002KT 08/M08 A3032 RMK A01 T00801080  RH  031%=      5-min Rain = 0
KBO1 092307Z 04002KT 08/M08 A3032 RMK A01 T00801079  RH  031%=      5-min Rain = 0
KBO1 092308Z 04003KT 08/M08 A3032 RMK A01 T00791078  RH  032%=      5-min Rain = 0
KBO1 092309Z 05003KT 08/M08 A3032 RMK A01 T00771077  RH  032%=      5-min Rain = 0
KBO1 092310Z 05003KT 08/M08 A3032 RMK A01 T00761077  RH  033%=      5-min Rain = 0
KBO1 092311Z 05004KT 07/M08 A3032 RMK A01 T00741077  RH  033%=      5-min Rain = 0
KBO1 092312Z 05004KT 07/M08 A3032 RMK A01 T00731077  RH  034%=      5-min Rain = 0
KBO1 092313Z 05005KT 07/M08 A3032 RMK A01 T00721077  RH  034%=      5-min Rain = 0
KBO1 092314Z 05005KT 07/M08 A3033 RMK A01 T00711076  RH  034%=      5-min Rain = 0
KBO1 092315Z 05004KT 07/M08 A3033 RMK A01 T00691076  RH  035%=      5-min Rain = 0
KBO1 092316Z 05005KT 07/M08 A3033 RMK A01 T00671076  RH  035%=      5-min Rain = 0
KBO1 092317Z 05005KT 07/M08 A3033 RMK A01 T00651076  RH  036%=      5-min Rain = 0
KBO1 092318Z 04005KT 06/M08 A3033 RMK A01 T00631076  RH  036%=      5-min Rain = 0
KBO1 092319Z 04005KT 06/M08 A3033 RMK A01 T00631076  RH  036%=      5-min Rain = 0
KBO1 092320Z 05005KT 06/M08 A3033 RMK A01 T00621076  RH  037%=      5-min Rain = 0
KBO1 092321Z 05005KT 06/M08 A3033 RMK A01 T00601076  RH  037%=      5-min Rain = 0
KBO1 092322Z 05005KT 06/M08 A3033 RMK A01 T00591076  RH  037%=      5-min Rain = 0
KBO1 092323Z 05005KT 06/M08 A3033 RMK A01 T00571076  RH  038%=      5-min Rain = 0
KBO1 092324Z 05005KT 06/M08 A3033 RMK A01 T00561076  RH  038%=      5-min Rain = 0
KBO1 092325Z 05005KT 06/M08 A3033 RMK A01 T00551076  RH  038%=      5-min Rain = 0
KBO1 092326Z 05006KT 05/M08 A3033 RMK A01 T00531076  RH  039%=      5-min Rain = 0
KBO1 092327Z 05005KT 05/M08 A3033 RMK A01 T00531076  RH  039%=      5-min Rain = 0
KBO1 092328Z 05005KT 05/M08 A3033 RMK A01 T00521076  RH  039%=      5-min Rain = 0
KBO1 092329Z 05005KT 05/M08 A3033 RMK A01 T00511075  RH  040%=      5-min Rain = 0
KBO1 092330Z 06005KT 05/M08 A3033 RMK A01 T00501076  RH  040%=      5-min Rain = 0
KBO1 092331Z 06005KT 05/M08 A3033 RMK A01 T00501076  RH  040%=      5-min Rain = 0
KBO1 092332Z 06005KT 05/M08 A3033 RMK A01 T00491076  RH  040%=      5-min Rain = 0
KBO1 092333Z 06005KT 05/M08 A3033 RMK A01 T00481076  RH  040%=      5-min Rain = 0
KBO1 092334Z 06005KT 05/M08 A3033 RMK A01 T00481076  RH  040%=      5-min Rain = 0
KBO1 092335Z 05005KT 05/M08 A3033 RMK A01 T00471077  RH  040%=      5-min Rain = 0
KBO1 092336Z 05005KT 05/M08 A3033 RMK A01 T00461077  RH  040%=      5-min Rain = 0
KBO1 092337Z 05005KT 05/M08 A3033 RMK A01 T00451078  RH  041%=      5-min Rain = 0
KBO1 092338Z 05005KT 04/M08 A3033 RMK A01 T00441078  RH  041%=      5-min Rain = 0
KBO1 092339Z 05005KT 04/M08 A3033 RMK A01 T00421078  RH  041%=      5-min Rain = 0
KBO1 092340Z 05005KT 04/M08 A3034 RMK A01 T00411079  RH  041%=      5-min Rain = 0
KBO1 092341Z 04005KT 04/M08 A3034 RMK A01 T00401079  RH  042%=      5-min Rain = 0
KBO1 092342Z 03005KT 04/M08 A3034 RMK A01 T00381079  RH  042%=      5-min Rain = 0
KBO1 092343Z 03006KT 04/M08 A3034 RMK A01 T00371080  RH  042%=      5-min Rain = 0
KBO1 092344Z 04006KT 04/M08 A3034 RMK A01 T00361080  RH  043%=      5-min Rain = 0
KBO1 092345Z 04006KT 04/M08 A3034 RMK A01 T00361079  RH  043%=      5-min Rain = 0
KBO1 092346Z 04006KT 04/M08 A3034 RMK A01 T00351079  RH  043%=      5-min Rain = 0
KBO1 092347Z 04006KT 04/M08 A3034 RMK A01 T00351081  RH  043%=      5-min Rain = 0
KBO1 092348Z 04006KT 03/M08 A3034 RMK A01 T00341082  RH  043%=      5-min Rain = 0
KBO1 092349Z 04007KT 03/M08 A3034 RMK A01 T00331082  RH  043%=      5-min Rain = 0
KBO1 092350Z 04007KT 03/M08 A3034 RMK A01 T00331082  RH  043%=      5-min Rain = 0
KBO1 092351Z 04007KT 03/M08 A3034 RMK A01 T00321082  RH  043%=      5-min Rain = 0
KBO1 092352Z 03007KT 03/M08 A3034 RMK A01 T00321082  RH  043%=      5-min Rain = 0
KBO1 092353Z 03007KT 03/M08 A3034 RMK A01 T00311083  RH  043%=      5-min Rain = 0
KBO1 092354Z 03008KT 03/M08 A3034 RMK A01 T00301083  RH  043%=      5-min Rain = 0
KBO1 092355Z 03008KT 03/M08 A3034 RMK A01 T00291083  RH  044%=      5-min Rain = 0
KBO1 092356Z 03008KT 03/M08 A3034 RMK A01 T00281083  RH  044%=      5-min Rain = 0
KBO1 092357Z 04007KT 03/M08 A3035 RMK A01 T00261083  RH  044%=      5-min Rain = 0
KBO1 092358Z 04007KT 02/M08 A3035 RMK A01 T00241084  RH  045%=      5-min Rain = 0
KBO1 092359Z 04007KT 02/M08 A3035 RMK A01 T00231084  RH  045%=      5-min Rain = 0
KBO1 100000Z 04007KT 02/M08 A3035 RMK A01 T00221083  RH  046%=      5-min Rain = 0
KBO1 100001Z 04007KT 02/M08 A3035 RMK A01 T00221083  RH  046%=      5-min Rain = 0
KBO1 100002Z 04006KT 02/M08 A3035 RMK A01 T00221083  RH  046%=      5-min Rain = 0
KBO1 100003Z 04006KT 02/M08 A3035 RMK A01 T00221083  RH  046%=      5-min Rain = 0
KBO1 100004Z 03006KT 02/M08 A3035 RMK A01 T00211083  RH  046%=      5-min Rain = 0
KBO1 100005Z 03006KT 02/M08 A3035 RMK A01 T00201084  RH  046%=      5-min Rain = 0
KBO1 100006Z 03006KT 02/M08 A3035 RMK A01 T00201084  RH  046%=      5-min Rain = 0
KBO1 100007Z 04006KT 02/M08 A3035 RMK A01 T00191084  RH  046%=      5-min Rain = 0
KBO1 100008Z 04006KT 02/M08 A3035 RMK A01 T00191084  RH  046%=      5-min Rain = 0
KBO1 100009Z 03005KT 02/M08 A3035 RMK A01 T00191083  RH  047%=      5-min Rain = 0
KBO1 100010Z 03005KT 02/M08 A3035 RMK A01 T00191083  RH  047%=      5-min Rain = 0
KBO1 100011Z 03005KT 02/M08 A3035 RMK A01 T00191084  RH  046%=      5-min Rain = 0
KBO1 100012Z 03006KT 02/M08 A3035 RMK A01 T00191084  RH  046%=      5-min Rain = 0
KBO1 100013Z 03006KT 02/M08 A3035 RMK A01 T00201084  RH  046%=      5-min Rain = 0
KBO1 100014Z 03006KT 02/M08 A3035 RMK A01 T00201084  RH  046%=      5-min Rain = 0
KBO1 100015Z 03006KT 02/M09 A3035 RMK A01 T00201085  RH  046%=      5-min Rain = 0
KBO1 100016Z 03006KT 02/M08 A3035 RMK A01 T00211084  RH  046%=      5-min Rain = 0
KBO1 100017Z 03007KT 02/M08 A3035 RMK A01 T00211084  RH  046%=      5-min Rain = 0
KBO1 100018Z 03007KT 02/M09 A3036 RMK A01 T00211085  RH  046%=      5-min Rain = 0
KBO1 100019Z 03007KT 02/M09 A3036 RMK A01 T00201085  RH  046%=      5-min Rain = 0
KBO1 100020Z 03007KT 02/M09 A3036 RMK A01 T00201085  RH  046%=      5-min Rain = 0
KBO1 100021Z 03007KT 02/M09 A3036 RMK A01 T00201086  RH  046%=      5-min Rain = 0
KBO1 100022Z 03007KT 02/M09 A3036 RMK A01 T00191086  RH  046%=      5-min Rain = 0
KBO1 100023Z 03007KT 02/M09 A3036 RMK A01 T00191087  RH  045%=      5-min Rain = 0
KBO1 100024Z 03007KT 02/M09 A3036 RMK A01 T00191088  RH  045%=      5-min Rain = 0
KBO1 100025Z 03007KT 02/M09 A3036 RMK A01 T00181089  RH  045%=      5-min Rain = 0
KBO1 100026Z 03007KT 02/M09 A3036 RMK A01 T00181089  RH  045%=      5-min Rain = 0
KBO1 100027Z 03007KT 02/M09 A3036 RMK A01 T00171090  RH  045%=      5-min Rain = 0
KBO1 100028Z 03006KT 02/M09 A3036 RMK A01 T00161091  RH  045%=      5-min Rain = 0
KBO1 100029Z 02006KT 02/M09 A3036 RMK A01 T00151091  RH  045%=      5-min Rain = 0
KBO1 100030Z 03006KT 01/M09 A3036 RMK A01 T00141092  RH  045%=      5-min Rain = 0
KBO1 100031Z 03007KT 01/M09 A3036 RMK A01 T00131092  RH  046%=      5-min Rain = 0
KBO1 100032Z 02006KT 01/M09 A3036 RMK A01 T00131091  RH  046%=      5-min Rain = 0
KBO1 100033Z 03007KT 01/M09 A3036 RMK A01 T00121091  RH  046%=      5-min Rain = 0
KBO1 100034Z 03006KT 01/M09 A3036 RMK A01 T00111092  RH  046%=      5-min Rain = 0
KBO1 100035Z 03006KT 01/M09 A3036 RMK A01 T00101092  RH  046%=      5-min Rain = 0
KBO1 100036Z 03006KT 01/M09 A3036 RMK A01 T00091092  RH  047%=      5-min Rain = 0
KBO1 100037Z 03007KT 01/M09 A3036 RMK A01 T00081093  RH  047%=      5-min Rain = 0
KBO1 100038Z 03007KT 01/M09 A3036 RMK A01 T00081093  RH  047%=      5-min Rain = 0
KBO1 100039Z 03007KT 01/M09 A3037 RMK A01 T00081094  RH  047%=      5-min Rain = 0
KBO1 100040Z 03007KT 01/M10 A3037 RMK A01 T00081095  RH  046%=      5-min Rain = 0
KBO1 100041Z 04007KT 01/M10 A3037 RMK A01 T00081095  RH  046%=      5-min Rain = 0
KBO1 100042Z 04008KT 01/M10 A3037 RMK A01 T00081096  RH  046%=      5-min Rain = 0
KBO1 100043Z 03008KT 01/M10 A3037 RMK A01 T00081096  RH  046%=      5-min Rain = 0
KBO1 100044Z 03007KT 01/M10 A3037 RMK A01 T00071097  RH  046%=      5-min Rain = 0
KBO1 100045Z 03007KT 01/M10 A3037 RMK A01 T00061098  RH  046%=      5-min Rain = 0
KBO1 100046Z 03007KT 01/M10 A3037 RMK A01 T00051097  RH  046%=      5-min Rain = 0
KBO1 100047Z 03007KT 00/M10 A3037 RMK A01 T00041098  RH  046%=      5-min Rain = 0
KBO1 100048Z 03007KT 00/M10 A3037 RMK A01 T00031098  RH  047%=      5-min Rain = 0
KBO1 100049Z 03007KT 00/M10 A3037 RMK A01 T00031099  RH  047%=      5-min Rain = 0
KBO1 100050Z 04007KT 00/M10 A3037 RMK A01 T00021099  RH  047%=      5-min Rain = 0
KBO1 100051Z 04007KT 00/M10 A3037 RMK A01 T00011099  RH  047%=      5-min Rain = 0
KBO1 100052Z 04007KT 00/10 A3037 RMK A01 T00000-100  RH  047%=      5-min Rain = 0
KBO1 100053Z 04007KT 00/10 A3037 RMK A01 T00-00-100  RH  047%=      5-min Rain = 0
KBO1 100054Z 04007KT M00/M10 A3037 RMK A01 T10011100  RH  047%=      5-min Rain = 0
KBO1 100055Z 04007KT M00/M10 A3037 RMK A01 T10021100  RH  047%=      5-min Rain = 0
KBO1 100056Z 04008KT M00/M10 A3037 RMK A01 T10031101  RH  047%=      5-min Rain = 0
KBO1 100057Z 04008KT M00/M10 A3037 RMK A01 T10031101  RH  048%=      5-min Rain = 0
KBO1 100058Z 04008KT M00/M10 A3037 RMK A01 T10041101  RH  048%=      5-min Rain = 0
KBO1 100059Z 04008KT M00/M10 A3037 RMK A01 T10041101  RH  048%=      5-min Rain = 0
KBO1 100100Z 04008KT M00/M10 A3037 RMK A01 T10041101  RH  048%=      5-min Rain = 0
KBO1 100101Z 04008KT M00/M10 A3037 RMK A01 T10041101  RH  048%=      5-min Rain = 0
KBO1 100102Z 04008KT M00/M10 A3037 RMK A01 T10031101  RH  048%=      5-min Rain = 0
KBO1 100103Z 04008KT M00/M10 A3037 RMK A01 T10031101  RH  047%=      5-min Rain = 0
KBO1 100104Z 04007KT M00/M10 A3037 RMK A01 T10021101  RH  047%=      5-min Rain = 0
KBO1 100105Z 04008KT M00/M10 A3037 RMK A01 T10021102  RH  047%=      5-min Rain = 0
KBO1 100106Z 04007KT M00/M10 A3037 RMK A01 T10031103  RH  047%=      5-min Rain = 0
KBO1 100107Z 04007KT M00/M10 A3037 RMK A01 T10041103  RH  047%=      5-min Rain = 0
KBO1 100108Z 04007KT M00/M10 A3037 RMK A01 T10041103  RH  047%=      5-min Rain = 0
KBO1 100109Z 04007KT M01/M10 A3037 RMK A01 T10051104  RH  047%=      5-min Rain = 0
KBO1 100110Z 04007KT M01/M10 A3037 RMK A01 T10051104  RH  047%=      5-min Rain = 0
KBO1 100111Z 04007KT M01/M10 A3037 RMK A01 T10051104  RH  047%=      5-min Rain = 0
KBO1 100112Z 04007KT M01/M10 A3037 RMK A01 T10061104  RH  047%=      5-min Rain = 0
KBO1 100113Z 04007KT M01/M11 A3037 RMK A01 T10061105  RH  047%=      5-min Rain = 0
KBO1 100114Z 04007KT M01/M11 A3037 RMK A01 T10071105  RH  047%=      5-min Rain = 0
KBO1 100115Z 04007KT M01/M11 A3037 RMK A01 T10061105  RH  047%=      5-min Rain = 0
KBO1 100116Z 04006KT M01/M11 A3037 RMK A01 T10051106  RH  047%=      5-min Rain = 0
KBO1 100117Z 04006KT M00/M11 A3037 RMK A01 T10041106  RH  046%=      5-min Rain = 0
KBO1 100118Z 04007KT M00/M11 A3037 RMK A01 T10021106  RH  045%=      5-min Rain = 0
KBO1 100119Z 04007KT 00/11 A3037 RMK A01 T00-00-106  RH  045%=      5-min Rain = 0
KBO1 100120Z 04007KT 00/11 A3037 RMK A01 T00000-107  RH  044%=      5-min Rain = 0
KBO1 100121Z 04007KT 00/M11 A3037 RMK A01 T00011107  RH  044%=      5-min Rain = 0
KBO1 100122Z 04007KT 00/M11 A3037 RMK A01 T00011107  RH  044%=      5-min Rain = 0
KBO1 100123Z 04006KT 00/11 A3037 RMK A01 T00-00-108  RH  044%=      5-min Rain = 0
KBO1 100124Z 04006KT 00/11 A3037 RMK A01 T00-00-108  RH  044%=      5-min Rain = 0
KBO1 100125Z 04006KT 00/11 A3037 RMK A01 T00-00-108  RH  044%=      5-min Rain = 0
KBO1 100126Z 05006KT 00/11 A3037 RMK A01 T00-00-108  RH  044%=      5-min Rain = 0
KBO1 100127Z 05006KT 00/11 A3037 RMK A01 T00000-108  RH  044%=      5-min Rain = 0
KBO1 100128Z 05006KT 00/M11 A3037 RMK A01 T00011108  RH  044%=      5-min Rain = 0
KBO1 100129Z 05006KT 00/M11 A3037 RMK A01 T00021108  RH  043%=      5-min Rain = 0
KBO1 100130Z 05006KT 00/M11 A3037 RMK A01 T00031108  RH  043%=      5-min Rain = 0
KBO1 100131Z 05006KT 00/M11 A3037 RMK A01 T00031108  RH  043%=      5-min Rain = 0
KBO1 100132Z 05007KT 00/M11 A3037 RMK A01 T00041108  RH  043%=      5-min Rain = 0
KBO1 100133Z 05007KT 01/M11 A3037 RMK A01 T00051107  RH  043%=      5-min Rain = 0
KBO1 100134Z 05007KT 01/M11 A3037 RMK A01 T00051107  RH  043%=      5-min Rain = 0
KBO1 100135Z 05006KT 01/M11 A3037 RMK A01 T00051107  RH  043%=      5-min Rain = 0
KBO1 100136Z 05007KT 01/M11 A3037 RMK A01 T00051108  RH  043%=      5-min Rain = 0
KBO1 100137Z 05006KT 01/M11 A3037 RMK A01 T00051107  RH  043%=      5-min Rain = 0
KBO1 100138Z 05006KT 00/M11 A3037 RMK A01 T00041107  RH  043%=      5-min Rain = 0
KBO1 100139Z 05006KT 00/M11 A3037 RMK A01 T00041107  RH  043%=      5-min Rain = 0
KBO1 100140Z 05006KT 00/M11 A3037 RMK A01 T00041107  RH  043%=      5-min Rain = 0
KBO1 100141Z 06006KT 00/M11 A3037 RMK A01 T00041107  RH  043%=      5-min Rain = 0
KBO1 100142Z 06006KT 00/M11 A3037 RMK A01 T00031108  RH  043%=      5-min Rain = 0
KBO1 100143Z 06006KT 00/M11 A3037 RMK A01 T00031108  RH  043%=      5-min Rain = 0
KBO1 100144Z 06006KT 00/M11 A3037 RMK A01 T00041108  RH  043%=      5-min Rain = 0
KBO1 100145Z 06006KT 01/M11 A3037 RMK A01 T00051107  RH  043%=      5-min Rain = 0
KBO1 100146Z 07006KT 01/M11 A3037 RMK A01 T00061107  RH  042%=      5-min Rain = 0
KBO1 100147Z 07006KT 01/M11 A3037 RMK A01 T00071107  RH  042%=      5-min Rain = 0
KBO1 100148Z 07006KT 01/M11 A3037 RMK A01 T00081107  RH  042%=      5-min Rain = 0
KBO1 100149Z 07006KT 01/M11 A3037 RMK A01 T00091107  RH  042%=      5-min Rain = 0
KBO1 100150Z 07007KT 01/M11 A3037 RMK A01 T00091107  RH  041%=      5-min Rain = 0
KBO1 100151Z 07007KT 01/M11 A3037 RMK A01 T00101107  RH  041%=      5-min Rain = 0
KBO1 100152Z 07007KT 01/M11 A3037 RMK A01 T00091108  RH  041%=      5-min Rain = 0
KBO1 100153Z 07007KT 01/M11 A3037 RMK A01 T00091108  RH  041%=      5-min Rain = 0
KBO1 100154Z 07007KT 01/M11 A3037 RMK A01 T00101107  RH  041%=      5-min Rain = 0
KBO1 100155Z 07007KT 01/M11 A3037 RMK A01 T00091107  RH  041%=      5-min Rain = 0
KBO1 100156Z 07007KT 01/M11 A3037 RMK A01 T00091107  RH  041%=      5-min Rain = 0
KBO1 100157Z 07007KT 01/M11 A3037 RMK A01 T00091107  RH  042%=      5-min Rain = 0
KBO1 100158Z 07007KT 01/M11 A3037 RMK A01 T00091107  RH  042%=      5-min Rain = 0
KBO1 100159Z 07007KT 01/M11 A3037 RMK A01 T00091107  RH  042%=      5-min Rain = 0
KBO1 100200Z 07007KT 01/M11 A3037 RMK A01 T00091107  RH  042%=      5-min Rain = 0
KBO1 100201Z 07007KT 01/M11 A3037 RMK A01 T00091107  RH  042%=      5-min Rain = 0
KBO1 100202Z 07007KT 01/M11 A3037 RMK A01 T00091107  RH  042%=      5-min Rain = 0
KBO1 100203Z 07007KT 01/M11 A3037 RMK A01 T00091107  RH  042%=      5-min Rain = 0
KBO1 100204Z 07007KT 01/M11 A3037 RMK A01 T00091107  RH  042%=      5-min Rain = 0
KBO1 100205Z 07006KT 01/M11 A3037 RMK A01 T00091107  RH  041%=      5-min Rain = 0
KBO1 100206Z 07006KT 01/M11 A3037 RMK A01 T00091107  RH  041%=      5-min Rain = 0
KBO1 100207Z 07006KT 01/M11 A3037 RMK A01 T00091107  RH  041%=      5-min Rain = 0
KBO1 100208Z 07006KT 01/M11 A3037 RMK A01 T00091108  RH  041%=      5-min Rain = 0
KBO1 100209Z 07006KT 01/M11 A3037 RMK A01 T00091108  RH  041%=      5-min Rain = 0
KBO1 100210Z 06006KT 01/M11 A3037 RMK A01 T00091108  RH  041%=      5-min Rain = 0
KBO1 100211Z 06006KT 01/M11 A3037 RMK A01 T00101108  RH  041%=      5-min Rain = 0
KBO1 100212Z 06006KT 01/M11 A3037 RMK A01 T00101108  RH  041%=      5-min Rain = 0
KBO1 100213Z 06006KT 01/M11 A3038 RMK A01 T00101108  RH  041%=      5-min Rain = 0
KBO1 100214Z 06006KT 01/M11 A3037 RMK A01 T00101108  RH  041%=      5-min Rain = 0
KBO1 100215Z 06007KT 01/M11 A3037 RMK A01 T00101108  RH  041%=      5-min Rain = 0
KBO1 100216Z 06007KT 01/M11 A3037 RMK A01 T00091108  RH  041%=      5-min Rain = 0
KBO1 100217Z 06007KT 01/M11 A3037 RMK A01 T00091108  RH  041%=      5-min Rain = 0
KBO1 100218Z 06007KT 01/M11 A3037 RMK A01 T00081108  RH  042%=      5-min Rain = 0
KBO1 100219Z 07007KT 01/M11 A3037 RMK A01 T00081108  RH  042%=      5-min Rain = 0
KBO1 100220Z 07007KT 01/M11 A3037 RMK A01 T00071108  RH  042%=      5-min Rain = 0
KBO1 100221Z 07007KT 01/M11 A3037 RMK A01 T00071108  RH  042%=      5-min Rain = 0
KBO1 100222Z 07007KT 01/M11 A3037 RMK A01 T00061107  RH  042%=      5-min Rain = 0
KBO1 100223Z 07007KT 01/M11 A3037 RMK A01 T00061107  RH  042%=      5-min Rain = 0
KBO1 100224Z 07007KT 01/M11 A3037 RMK A01 T00061107  RH  043%=      5-min Rain = 0
KBO1 100225Z 07007KT 01/M11 A3037 RMK A01 T00051107  RH  043%=      5-min Rain = 0
KBO1 100226Z 07006KT 01/M11 A3037 RMK A01 T00051107  RH  043%=      5-min Rain = 0
KBO1 100227Z 07006KT 01/M11 A3037 RMK A01 T00051107  RH  043%=      5-min Rain = 0
KBO1 100228Z 07006KT 01/M11 A3037 RMK A01 T00061106  RH  043%=      5-min Rain = 0
KBO1 100229Z 08006KT 01/M11 A3037 RMK A01 T00061106  RH  043%=      5-min Rain = 0
KBO1 100230Z 08005KT 01/M11 A3037 RMK A01 T00061106  RH  043%=      5-min Rain = 0
KBO1 100231Z 08005KT 01/M11 A3037 RMK A01 T00071106  RH  043%=      5-min Rain = 0
KBO1 100232Z 08006KT 01/M11 A3037 RMK A01 T00071106  RH  043%=      5-min Rain = 0
KBO1 100233Z 08006KT 01/M11 A3037 RMK A01 T00081106  RH  042%=      5-min Rain = 0
KBO1 100234Z 08006KT 01/M11 A3037 RMK A01 T00081106  RH  042%=      5-min Rain = 0
KBO1 100235Z 08005KT 01/M11 A3037 RMK A01 T00091106  RH  042%=      5-min Rain = 0
KBO1 100236Z 08005KT 01/M11 A3037 RMK A01 T00091106  RH  042%=      5-min Rain = 0
KBO1 100237Z 09005KT 01/M11 A3037 RMK A01 T00081106  RH  042%=      5-min Rain = 0
KBO1 100238Z 09005KT 01/M11 A3037 RMK A01 T00071106  RH  042%=      5-min Rain = 0
KBO1 100239Z 09005KT 01/M11 A3037 RMK A01 T00071106  RH  042%=      5-min Rain = 0
KBO1 100240Z 08005KT 01/M11 A3037 RMK A01 T00071107  RH  042%=      5-min Rain = 0
KBO1 100241Z 08005KT 01/M11 A3037 RMK A01 T00071106  RH  042%=      5-min Rain = 0
KBO1 100242Z 08005KT 01/M11 A3037 RMK A01 T00081106  RH  042%=      5-min Rain = 0
KBO1 100243Z 08005KT 01/M11 A3038 RMK A01 T00081106  RH  042%=      5-min Rain = 0
KBO1 100244Z 08005KT 01/M11 A3038 RMK A01 T00091106  RH  042%=      5-min Rain = 0
KBO1 100245Z 09004KT 01/M11 A3038 RMK A01 T00091106  RH  042%=      5-min Rain = 0
KBO1 100246Z 13002KT 01/M11 A3038 RMK A01 T00081107  RH  042%=      5-min Rain = 0
KBO1 100247Z 11004KT 01/M11 A3037 RMK A01 T00061108  RH  042%=      5-min Rain = 0
KBO1 100248Z 11004KT 01/M11 A3037 RMK A01 T00061107  RH  042%=      5-min Rain = 0
KBO1 100249Z 12003KT 01/M11 A3037 RMK A01 T00071106  RH  042%=      5-min Rain = 0
KBO1 100250Z 13003KT 01/M11 A3038 RMK A01 T00061107  RH  042%=      5-min Rain = 0
KBO1 100251Z 12003KT 00/M11 A3038 RMK A01 T00021108  RH  043%=      5-min Rain = 0
KBO1 100252Z 11003KT 00/M11 A3038 RMK A01 T00011106  RH  044%=      5-min Rain = 0
KBO1 100253Z 11004KT 00/11 A3038 RMK A01 T00000-106  RH  045%=      5-min Rain = 0
KBO1 100254Z 11004KT 00/M11 A3038 RMK A01 T00011105  RH  045%=      5-min Rain = 0
KBO1 100255Z 10004KT 00/M10 A3038 RMK A01 T00041104  RH  044%=      5-min Rain = 0
KBO1 100256Z 10004KT 01/M10 A3038 RMK A01 T00071103  RH  044%=      5-min Rain = 0
KBO1 100257Z 09004KT 01/M10 A3038 RMK A01 T00101103  RH  043%=      5-min Rain = 0
KBO1 100258Z 09004KT 01/M10 A3038 RMK A01 T00121103  RH  042%=      5-min Rain = 0
KBO1 100259Z 09004KT 01/M10 A3038 RMK A01 T00141103  RH  041%=      5-min Rain = 0
KBO1 100300Z 09005KT 02/M10 A3038 RMK A01 T00151103  RH  041%=      5-min Rain = 0
KBO1 100301Z 09005KT 02/M10 A3038 RMK A01 T00171102  RH  041%=      5-min Rain = 0
KBO1 100302Z 09005KT 02/M10 A3038 RMK A01 T00181102  RH  041%=      5-min Rain = 0
KBO1 100303Z 09005KT 02/M10 A3038 RMK A01 T00191102  RH  040%=      5-min Rain = 0
KBO1 100304Z 09005KT 02/M10 A3038 RMK A01 T00201102  RH  040%=      5-min Rain = 0
KBO1 100305Z 09005KT 02/M10 A3038 RMK A01 T00201102  RH  040%=      5-min Rain = 0
KBO1 100306Z 09005KT 02/M10 A3038 RMK A01 T00201102  RH  040%=      5-min Rain = 0
KBO1 100307Z 10005KT 02/M10 A3038 RMK A01 T00201101  RH  040%=      5-min Rain = 0
KBO1 100308Z 10005KT 02/M10 A3038 RMK A01 T00191101  RH  040%=      5-min Rain = 0
KBO1 100309Z 10006KT 02/M10 A3038 RMK A01 T00201101  RH  041%=      5-min Rain = 0
KBO1 100310Z 11006KT 02/M10 A3038 RMK A01 T00191101  RH  041%=      5-min Rain = 0
KBO1 100311Z 11005KT 02/M10 A3038 RMK A01 T00191100  RH  041%=      5-min Rain = 0
KBO1 100312Z 11005KT 02/M10 A3038 RMK A01 T00191100  RH  041%=      5-min Rain = 0
KBO1 100313Z 11006KT 02/M10 A3038 RMK A01 T00181101  RH  041%=      5-min Rain = 0
KBO1 100314Z 11006KT 02/M10 A3038 RMK A01 T00181101  RH  041%=      5-min Rain = 0
KBO1 100315Z 12006KT 02/M10 A3038 RMK A01 T00171101  RH  041%=      5-min Rain = 0
KBO1 100316Z 12005KT 02/M10 A3038 RMK A01 T00161101  RH  042%=      5-min Rain = 0
KBO1 100317Z 13005KT 02/M10 A3038 RMK A01 T00171100  RH  042%=      5-min Rain = 0
KBO1 100318Z 13005KT 02/M10 A3038 RMK A01 T00161101  RH  042%=      5-min Rain = 0
KBO1 100319Z 12006KT 02/M10 A3038 RMK A01 T00161101  RH  042%=      5-min Rain = 0
KBO1 100320Z 12006KT 02/M10 A3038 RMK A01 T00151101  RH  042%=      5-min Rain = 0
KBO1 100321Z 12006KT 02/M10 A3038 RMK A01 T00151101  RH  042%=      5-min Rain = 0
KBO1 100322Z 12006KT 01/M10 A3038 RMK A01 T00141101  RH  042%=      5-min Rain = 0
KBO1 100323Z 12006KT 01/M10 A3038 RMK A01 T00141101  RH  042%=      5-min Rain = 0
KBO1 100324Z 12006KT 01/M10 A3038 RMK A01 T00141100  RH  042%=      5-min Rain = 0
KBO1 100325Z 12005KT 02/M10 A3038 RMK A01 T00151100  RH  042%=      5-min Rain = 0
KBO1 100326Z 12005KT 02/M10 A3038 RMK A01 T00151099  RH  042%=      5-min Rain = 0
KBO1 100327Z 13005KT 02/M10 A3038 RMK A01 T00151100  RH  042%=      5-min Rain = 0
KBO1 100328Z 13005KT 02/M10 A3038 RMK A01 T00151100  RH  042%=      5-min Rain = 0
KBO1 100329Z 14004KT 01/M10 A3038 RMK A01 T00141101  RH  042%=      5-min Rain = 0
KBO1 100330Z 14004KT 01/M10 A3038 RMK A01 T00131101  RH  042%=      5-min Rain = 0
KBO1 100331Z 15004KT 01/M10 A3038 RMK A01 T00121101  RH  043%=      5-min Rain = 0
KBO1 100332Z 15005KT 01/M10 A3038 RMK A01 T00091103  RH  043%=      5-min Rain = 0
KBO1 100333Z 15004KT 01/M10 A3038 RMK A01 T00091102  RH  043%=      5-min Rain = 0
KBO1 100334Z 16004KT 01/M10 A3038 RMK A01 T00081102  RH  044%=      5-min Rain = 0
KBO1 100335Z 17004KT 01/M10 A3038 RMK A01 T00081102  RH  044%=      5-min Rain = 0
KBO1 100336Z 17004KT 01/M10 A3039 RMK A01 T00061102  RH  044%=      5-min Rain = 0
KBO1 100337Z 17004KT 00/M10 A3039 RMK A01 T00031103  RH  045%=      5-min Rain = 0
KBO1 100338Z 18004KT M00/M10 A3039 RMK A01 T10011104  RH  046%=      5-min Rain = 0
KBO1 100339Z 17003KT M00/M10 A3039 RMK A01 T10041103  RH  047%=      5-min Rain = 0
KBO1 100340Z 17003KT M01/M10 A3039 RMK A01 T10061103  RH  048%=      5-min Rain = 0
KBO1 100341Z 17004KT M01/M10 A3039 RMK A01 T10091103  RH  049%=      5-min Rain = 0
KBO1 100342Z 17004KT M01/M10 A3039 RMK A01 T10121104  RH  050%=      5-min Rain = 0
KBO1 100343Z 17004KT M02/M10 A3039 RMK A01 T10151104  RH  051%=      5-min Rain = 0
KBO1 100344Z 18004KT M02/M10 A3039 RMK A01 T10181103  RH  052%=      5-min Rain = 0
KBO1 100345Z 20004KT M02/M10 A3039 RMK A01 T10191102  RH  053%=      5-min Rain = 0
KBO1 100346Z 19004KT M02/M10 A3039 RMK A01 T10221102  RH  054%=      5-min Rain = 0
KBO1 100347Z 19005KT M02/M10 A3039 RMK A01 T10241102  RH  055%=      5-min Rain = 0
KBO1 100348Z 20005KT M03/M10 A3039 RMK A01 T10251102  RH  056%=      5-min Rain = 0
KBO1 100349Z 19005KT M03/M10 A3039 RMK A01 T10271102  RH  056%=      5-min Rain = 0
KBO1 100350Z 20005KT M03/M10 A3039 RMK A01 T10271101  RH  057%=      5-min Rain = 0
KBO1 100351Z 20005KT M03/M10 A3039 RMK A01 T10271101  RH  057%=      5-min Rain = 0
KBO1 100352Z 19005KT M03/M10 A3039 RMK A01 T10281101  RH  057%=      5-min Rain = 0
KBO1 100353Z 19005KT M03/M10 A3039 RMK A01 T10291101  RH  057%=      5-min Rain = 0
KBO1 100354Z 18004KT M03/M10 A3039 RMK A01 T10291101  RH  058%=      5-min Rain = 0
KBO1 100355Z 18004KT M03/M10 A3039 RMK A01 T10291101  RH  058%=      5-min Rain = 0
KBO1 100356Z 18004KT M03/M10 A3039 RMK A01 T10281100  RH  057%=      5-min Rain = 0
KBO1 100357Z 18004KT M03/M10 A3039 RMK A01 T10271101  RH  057%=      5-min Rain = 0
KBO1 100358Z 18004KT M03/M10 A3039 RMK A01 T10271101  RH  057%=      5-min Rain = 0
KBO1 100359Z 18004KT M03/M10 A3039 RMK A01 T10251101  RH  056%=      5-min Rain = 0
KBO1 100400Z 18004KT M02/M10 A3039 RMK A01 T10231101  RH  055%=      5-min Rain = 0
KBO1 100401Z 18004KT M02/M10 A3039 RMK A01 T10231101  RH  055%=      5-min Rain = 0
KBO1 100402Z 18004KT M02/M10 A3039 RMK A01 T10231101  RH  055%=      5-min Rain = 0
KBO1 100403Z 18004KT M02/M10 A3039 RMK A01 T10231102  RH  055%=      5-min Rain = 0
KBO1 100404Z 18004KT M02/M10 A3039 RMK A01 T10221102  RH  055%=      5-min Rain = 0
KBO1 100405Z 18004KT M02/M10 A3039 RMK A01 T10211102  RH  054%=      5-min Rain = 0
KBO1 100406Z 17005KT M02/M10 A3038 RMK A01 T10211102  RH  054%=      5-min Rain = 0
KBO1 100407Z 17005KT M02/M10 A3038 RMK A01 T10231103  RH  054%=      5-min Rain = 0
KBO1 100408Z 17005KT M02/M10 A3038 RMK A01 T10231103  RH  054%=      5-min Rain = 0
KBO1 100409Z 17005KT M02/M10 A3038 RMK A01 T10231102  RH  055%=      5-min Rain = 0
KBO1 100410Z 17005KT M02/M10 A3038 RMK A01 T10221102  RH  054%=      5-min Rain = 0
KBO1 100411Z 18004KT M02/M10 A3038 RMK A01 T10231102  RH  055%=      5-min Rain = 0
KBO1 100412Z 19004KT M03/M10 A3039 RMK A01 T10251103  RH  055%=      5-min Rain = 0
KBO1 100413Z 19004KT M03/M10 A3039 RMK A01 T10281104  RH  056%=      5-min Rain = 0
KBO1 100414Z 20005KT M03/M10 A3039 RMK A01 T10301104  RH  057%=      5-min Rain = 0
KBO1 100415Z 21007KT M03/M10 A3039 RMK A01 T10311103  RH  058%=      5-min Rain = 0
KBO1 100416Z 21008KT M03/M10 A3038 RMK A01 T10321102  RH  058%=      5-min Rain = 0
KBO1 100417Z 21007KT M03/M10 A3038 RMK A01 T10331102  RH  059%=      5-min Rain = 0
KBO1 100418Z 20007KT M03/M10 A3038 RMK A01 T10341101  RH  060%=      5-min Rain = 0
KBO1 100419Z 21008KT M04/M10 A3038 RMK A01 T10351101  RH  060%=      5-min Rain = 0
KBO1 100420Z 22008KT M04/M10 A3038 RMK A01 T10361100  RH  061%=      5-min Rain = 0
KBO1 100421Z 22008KT M04/M10 A3038 RMK A01 T10361100  RH  061%=      5-min Rain = 0
KBO1 100422Z 23008KT M04/M10 A3039 RMK A01 T10371100  RH  061%=      5-min Rain = 0
KBO1 100423Z 23008KT M04/M10 A3039 RMK A01 T10371100  RH  062%=      5-min Rain = 0
KBO1 100424Z 23009KT M04/M10 A3039 RMK A01 T10381101  RH  062%=      5-min Rain = 0
KBO1 100425Z 23010KT M04/M10 A3039 RMK A01 T10391101  RH  062%=      5-min Rain = 0
KBO1 100426Z 23010KT M04/M10 A3039 RMK A01 T10401101  RH  062%=      5-min Rain = 0
KBO1 100427Z 23010KT M04/M10 A3039 RMK A01 T10401101  RH  063%=      5-min Rain = 0
KBO1 100428Z 23010KT M04/M10 A3039 RMK A01 T10421101  RH  063%=      5-min Rain = 0
KBO1 100429Z 23010KT M04/M10 A3039 RMK A01 T10431101  RH  064%=      5-min Rain = 0
KBO1 100430Z 23009KT M04/M10 A3039 RMK A01 T10441101  RH  064%=      5-min Rain = 0
KBO1 100431Z 23009KT M05/M10 A3039 RMK A01 T10451101  RH  065%=      5-min Rain = 0
KBO1 100432Z 23009KT M05/M10 A3039 RMK A01 T10451101  RH  065%=      5-min Rain = 0
KBO1 100433Z 23009KT M05/M10 A3039 RMK A01 T10461101  RH  065%=      5-min Rain = 0
KBO1 100434Z 23009KT M05/M10 A3039 RMK A01 T10461101  RH  066%=      5-min Rain = 0
KBO1 100435Z 23009KT M05/M10 A3039 RMK A01 T10471101  RH  066%=      5-min Rain = 0
KBO1 100436Z 23008KT M05/M10 A3039 RMK A01 T10481101  RH  066%=      5-min Rain = 0
KBO1 100437Z 23008KT M05/M10 A3039 RMK A01 T10481102  RH  066%=      5-min Rain = 0
KBO1 100438Z 23008KT M05/M10 A3039 RMK A01 T10481101  RH  066%=      5-min Rain = 0
KBO1 100439Z 23008KT M05/M10 A3039 RMK A01 T10491101  RH  066%=      5-min Rain = 0
KBO1 100440Z 23009KT M05/M10 A3039 RMK A01 T10491101  RH  067%=      5-min Rain = 0
KBO1 100441Z 23009KT M05/M10 A3039 RMK A01 T10491101  RH  067%=      5-min Rain = 0
KBO1 100442Z 23009KT M05/M10 A3039 RMK A01 T10501102  RH  067%=      5-min Rain = 0
KBO1 100443Z 24009KT M05/M10 A3039 RMK A01 T10511102  RH  067%=      5-min Rain = 0
KBO1 100444Z 24009KT M05/M10 A3039 RMK A01 T10521102  RH  068%=      5-min Rain = 0
KBO1 100445Z 24009KT M05/M10 A3039 RMK A01 T10531102  RH  068%=      5-min Rain = 0
KBO1 100446Z 24009KT M05/M10 A3039 RMK A01 T10531102  RH  069%=      5-min Rain = 0
KBO1 100447Z 24009KT M05/M10 A3039 RMK A01 T10531102  RH  069%=      5-min Rain = 0
KBO1 100448Z 24009KT M05/M10 A3039 RMK A01 T10541101  RH  069%=      5-min Rain = 0
KBO1 100449Z 23009KT M05/M10 A3039 RMK A01 T10541101  RH  069%=      5-min Rain = 0
KBO1 100450Z 23009KT M05/M10 A3039 RMK A01 T10541101  RH  069%=      5-min Rain = 0
KBO1 100451Z 23008KT M05/M10 A3039 RMK A01 T10531101  RH  069%=      5-min Rain = 0
KBO1 100452Z 23008KT M05/M10 A3039 RMK A01 T10521101  RH  069%=      5-min Rain = 0
KBO1 100453Z 23008KT M05/M10 A3039 RMK A01 T10511100  RH  068%=      5-min Rain = 0
KBO1 100454Z 22008KT M05/M10 A3039 RMK A01 T10511101  RH  068%=      5-min Rain = 0
KBO1 100455Z 23008KT M05/M10 A3039 RMK A01 T10521101  RH  068%=      5-min Rain = 0
KBO1 100456Z 23007KT M05/M10 A3039 RMK A01 T10511101  RH  068%=      5-min Rain = 0
KBO1 100457Z 23007KT M05/M10 A3039 RMK A01 T10511101  RH  068%=      5-min Rain = 0
KBO1 100458Z 23007KT M05/M10 A3039 RMK A01 T10511101  RH  068%=      5-min Rain = 0
KBO1 100459Z 23007KT M05/M10 A3039 RMK A01 T10511102  RH  068%=      5-min Rain = 0
KBO1 100500Z 23007KT M05/M10 A3039 RMK A01 T10511102  RH  068%=      5-min Rain = 0
KBO1 100501Z 24008KT M05/M10 A3039 RMK A01 T10501101  RH  067%=      5-min Rain = 0
KBO1 100502Z 23008KT M05/M10 A3039 RMK A01 T10491101  RH  067%=      5-min Rain = 0
KBO1 100503Z 23007KT M05/M10 A3039 RMK A01 T10481101  RH  066%=      5-min Rain = 0
KBO1 100504Z 23007KT M05/M10 A3039 RMK A01 T10481102  RH  066%=      5-min Rain = 0
KBO1 100505Z 23008KT M05/M10 A3039 RMK A01 T10481102  RH  066%=      5-min Rain = 0
KBO1 100506Z 23008KT M05/M10 A3039 RMK A01 T10491102  RH  066%=      5-min Rain = 0
KBO1 100507Z 23008KT M05/M10 A3039 RMK A01 T10501103  RH  066%=      5-min Rain = 0
KBO1 100508Z 23008KT M05/M10 A3039 RMK A01 T10501103  RH  066%=      5-min Rain = 0
KBO1 100509Z 23008KT M05/M10 A3039 RMK A01 T10501103  RH  067%=      5-min Rain = 0
KBO1 100510Z 23008KT M05/M10 A3039 RMK A01 T10501103  RH  067%=      5-min Rain = 0
KBO1 100511Z 23008KT M05/M10 A3039 RMK A01 T10511103  RH  067%=      5-min Rain = 0
KBO1 100512Z 23009KT M05/M10 A3039 RMK A01 T10511103  RH  067%=      5-min Rain = 0
KBO1 100513Z 23008KT M05/M10 A3039 RMK A01 T10511103  RH  067%=      5-min Rain = 0
KBO1 100514Z 23008KT M05/M10 A3039 RMK A01 T10521103  RH  067%=      5-min Rain = 0
KBO1 100515Z 23008KT M05/M10 A3039 RMK A01 T10521102  RH  067%=      5-min Rain = 0
KBO1 100516Z 23008KT M05/M10 A3039 RMK A01 T10521103  RH  068%=      5-min Rain = 0
KBO1 100517Z 23008KT M05/M10 A3039 RMK A01 T10531103  RH  068%=      5-min Rain = 0
KBO1 100518Z 23008KT M05/M10 A3039 RMK A01 T10541103  RH  068%=      5-min Rain = 0
KBO1 100519Z 24009KT M06/M10 A3039 RMK A01 T10551104  RH  068%=      5-min Rain = 0
KBO1 100520Z 24010KT M06/M10 A3039 RMK A01 T10551104  RH  069%=      5-min Rain = 0
KBO1 100521Z 24010KT M06/M10 A3039 RMK A01 T10551103  RH  069%=      5-min Rain = 0
KBO1 100522Z 24010KT M06/M10 A3039 RMK A01 T10561103  RH  069%=      5-min Rain = 0
KBO1 100523Z 24010KT M06/M10 A3039 RMK A01 T10561104  RH  069%=      5-min Rain = 0
KBO1 100524Z 24010KT M06/M10 A3039 RMK A01 T10561104  RH  069%=      5-min Rain = 0
KBO1 100525Z 24009KT M06/M10 A3039 RMK A01 T10561103  RH  069%=      5-min Rain = 0
KBO1 100526Z 24009KT M06/M10 A3039 RMK A01 T10551103  RH  069%=      5-min Rain = 0
KBO1 100527Z 24009KT M05/M10 A3039 RMK A01 T10541102  RH  069%=      5-min Rain = 0
KBO1 100528Z 24009KT M05/M10 A3039 RMK A01 T10531102  RH  069%=      5-min Rain = 0
KBO1 100529Z 24009KT M05/M10 A3039 RMK A01 T10531102  RH  069%=      5-min Rain = 0
KBO1 100530Z 24009KT M05/M10 A3039 RMK A01 T10531102  RH  068%=      5-min Rain = 0
KBO1 100531Z 24009KT M05/M10 A3039 RMK A01 T10531102  RH  068%=      5-min Rain = 0
KBO1 100532Z 24009KT M05/M10 A3039 RMK A01 T10531102  RH  068%=      5-min Rain = 0
KBO1 100533Z 24009KT M05/M10 A3039 RMK A01 T10531102  RH  068%=      5-min Rain = 0
KBO1 100534Z 24009KT M05/M10 A3039 RMK A01 T10521101  RH  068%=      5-min Rain = 0
KBO1 100535Z 24009KT M05/M10 A3039 RMK A01 T10511100  RH  068%=      5-min Rain = 0
KBO1 100536Z 24008KT M05/M10 A3039 RMK A01 T10501100  RH  068%=      5-min Rain = 0
KBO1 100537Z 24008KT M05/M10 A3039 RMK A01 T10491100  RH  068%=      5-min Rain = 0
KBO1 100538Z 24009KT M05/M10 A3039 RMK A01 T10491100  RH  068%=      5-min Rain = 0
KBO1 100539Z 24009KT M05/M10 A3039 RMK A01 T10481099  RH  067%=      5-min Rain = 0
KBO1 100540Z 24009KT M05/M10 A3039 RMK A01 T10471100  RH  067%=      5-min Rain = 0
KBO1 100541Z 24009KT M05/M10 A3039 RMK A01 T10471100  RH  067%=      5-min Rain = 0
KBO1 100542Z 24009KT M05/M10 A3039 RMK A01 T10471100  RH  066%=      5-min Rain = 0
KBO1 100543Z 25009KT M05/M10 A3039 RMK A01 T10471101  RH  066%=      5-min Rain = 0
KBO1 100544Z 25009KT M05/M10 A3039 RMK A01 T10481101  RH  066%=      5-min Rain = 0
KBO1 100545Z 25009KT M05/M10 A3039 RMK A01 T10481101  RH  066%=      5-min Rain = 0
KBO1 100546Z 25008KT M05/M10 A3039 RMK A01 T10481101  RH  067%=      5-min Rain = 0
KBO1 100547Z 25008KT M05/M10 A3039 RMK A01 T10491101  RH  067%=      5-min Rain = 0
KBO1 100548Z 25008KT M05/M10 A3039 RMK A01 T10491101  RH  067%=      5-min Rain = 0
KBO1 100549Z 25008KT M05/M10 A3039 RMK A01 T10491101  RH  067%=      5-min Rain = 0
KBO1 100550Z 25008KT M05/M10 A3039 RMK A01 T10491101  RH  067%=      5-min Rain = 0
KBO1 100551Z 25008KT M05/M10 A3039 RMK A01 T10491100  RH  067%=      5-min Rain = 0
KBO1 100552Z 25009KT M05/M10 A3039 RMK A01 T10491101  RH  067%=      5-min Rain = 0
KBO1 100553Z 25009KT M05/M10 A3039 RMK A01 T10491100  RH  067%=      5-min Rain = 0
KBO1 100554Z 25009KT M05/M10 A3039 RMK A01 T10481100  RH  067%=      5-min Rain = 0
KBO1 100555Z 25009KT M05/M10 A3039 RMK A01 T10471100  RH  067%=      5-min Rain = 0
KBO1 100556Z 25009KT M05/M10 A3039 RMK A01 T10471099  RH  067%=      5-min Rain = 0
KBO1 100557Z 25009KT M05/M10 A3039 RMK A01 T10461099  RH  066%=      5-min Rain = 0
KBO1 100558Z 24009KT M05/M10 A3039 RMK A01 T10461100  RH  066%=      5-min Rain = 0
KBO1 100559Z 24009KT M05/M10 A3039 RMK A01 T10461100  RH  066%=      5-min Rain = 0

Page generated in 0.1478 seconds.